Time,TemperatureF,DewpointF,PressureIn,WindDirection,WindDirectionDegrees,WindSpeedMPH,WindSpeedGustMPH,Humidity,HourlyPrecipIn,Conditions,Clouds,dailyrainin,SoftwareType,DateUTC
2013-01-09 00:00:00,30.1,16.6,29.88,SSW,203,1.1,2.5,57,0.00,,,0.00,WUHU216HW,2013-01-09 07:00:00,
2013-01-09 00:01:00,30.1,16.6,29.88,SSW,203,1.1,2.5,57,0.00,,,0.00,WUHU216HW,2013-01-09 07:01:00,
2013-01-09 00:03:00,29.9,16.5,29.88,SSW,203,1.1,2.5,57,0.00,,,0.00,WUHU216HW,2013-01-09 07:03:00,
2013-01-09 00:04:00,29.9,16.5,29.88,SSW,203,1.3,2.5,57,0.00,,,0.00,WUHU216HW,2013-01-09 07:04:00,
2013-01-09 00:06:00,29.9,16.5,29.88,SW,225,1.8,2.5,57,0.00,,,0.00,WUHU216HW,2013-01-09 07:06:00,
2013-01-09 00:09:00,29.9,16.5,29.88,SW,225,1.3,1.8,57,0.00,,,0.00,WUHU216HW,2013-01-09 07:09:00,
2013-01-09 00:10:00,29.9,16.5,29.88,SW,225,1.3,1.8,57,0.00,,,0.00,WUHU216HW,2013-01-09 07:10:00,
2013-01-09 00:11:00,29.9,16.5,29.88,WSW,248,0.4,1.8,57,0.00,,,0.00,WUHU216HW,2013-01-09 07:11:00,
2013-01-09 00:12:00,29.9,16.5,29.88,WSW,248,0.4,1.8,57,0.00,,,0.00,WUHU216HW,2013-01-09 07:12:00,
2013-01-09 00:14:00,29.9,16.5,29.88,West,270,1.1,1.8,57,0.00,,,0.00,WUHU216HW,2013-01-09 07:14:00,
2013-01-09 00:15:00,29.7,16.3,29.88,SW,225,0.9,1.8,57,0.00,,,0.00,WUHU216HW,2013-01-09 07:15:00,
2013-01-09 00:16:00,29.7,16.3,29.88,SW,225,1.8,1.8,57,0.00,,,0.00,WUHU216HW,2013-01-09 07:16:00,
2013-01-09 00:17:00,29.7,16.3,29.88,SSW,203,1.1,1.8,57,0.00,,,0.00,WUHU216HW,2013-01-09 07:17:00,
2013-01-09 00:19:00,29.5,16.6,29.88,SSW,203,1.6,3.1,58,0.00,,,0.00,WUHU216HW,2013-01-09 07:19:00,
2013-01-09 00:21:00,29.5,16.6,29.88,SSW,203,1.8,3.1,58,0.00,,,0.00,WUHU216HW,2013-01-09 07:21:00,
2013-01-09 00:22:00,29.5,16.6,29.88,SW,225,1.8,3.1,58,0.00,,,0.00,WUHU216HW,2013-01-09 07:22:00,
2013-01-09 00:24:00,29.3,16.4,29.88,WSW,248,1.6,3.1,58,0.00,,,0.00,WUHU216HW,2013-01-09 07:24:00,
2013-01-09 00:26:00,29.3,16.4,29.88,SSW,203,4.0,4.0,58,0.00,,,0.00,WUHU216HW,2013-01-09 07:26:00,
2013-01-09 00:27:00,29.2,16.2,29.88,SSW,203,2.7,4.0,58,0.00,,,0.00,WUHU216HW,2013-01-09 07:27:00,
2013-01-09 00:30:00,29.2,16.2,29.88,SW,225,3.8,4.0,58,0.00,,,0.00,WUHU216HW,2013-01-09 07:30:00,
2013-01-09 00:31:00,29.2,16.2,29.88,SW,225,5.4,5.4,58,0.00,,,0.00,WUHU216HW,2013-01-09 07:31:00,
2013-01-09 00:32:00,29.2,16.2,29.88,SSW,203,3.4,5.4,58,0.00,,,0.00,WUHU216HW,2013-01-09 07:32:00,
2013-01-09 00:35:00,29.2,16.7,29.87,SSW,203,1.8,5.4,59,0.00,,,0.00,WUHU216HW,2013-01-09 07:35:00,
2013-01-09 00:36:00,29.2,16.7,29.87,SW,225,2.9,5.4,59,0.00,,,0.00,WUHU216HW,2013-01-09 07:36:00,
2013-01-09 00:37:00,29.2,16.7,29.88,WSW,248,3.4,5.4,59,0.00,,,0.00,WUHU216HW,2013-01-09 07:37:00,
2013-01-09 00:40:00,29.2,16.7,29.87,WSW,248,3.8,5.4,59,0.00,,,0.00,WUHU216HW,2013-01-09 07:40:00,
2013-01-09 00:41:00,29.2,16.7,29.87,SSW,203,2.2,4.5,59,0.00,,,0.00,WUHU216HW,2013-01-09 07:41:00,
2013-01-09 00:42:00,29.2,16.7,29.87,SW,225,2.5,4.5,59,0.00,,,0.00,WUHU216HW,2013-01-09 07:42:00,
2013-01-09 00:45:00,29.3,17.2,29.87,SW,225,3.1,3.8,60,0.00,,,0.00,WUHU216HW,2013-01-09 07:45:00,
2013-01-09 00:46:00,29.5,17.4,29.87,SW,225,4.0,4.0,60,0.00,,,0.00,WUHU216HW,2013-01-09 07:46:00,
2013-01-09 00:47:00,29.5,17.4,29.87,SW,225,3.8,4.0,60,0.00,,,0.00,WUHU216HW,2013-01-09 07:47:00,
2013-01-09 00:51:00,29.7,17.6,29.87,SW,225,3.4,4.0,60,0.00,,,0.00,WUHU216HW,2013-01-09 07:51:00,
2013-01-09 00:52:00,29.7,17.6,29.87,SSW,203,4.0,4.0,60,0.00,,,0.00,WUHU216HW,2013-01-09 07:52:00,
2013-01-09 00:56:00,29.9,17.6,29.87,SW,225,2.5,4.0,60,0.00,,,0.00,WUHU216HW,2013-01-09 07:56:00,
2013-01-09 00:57:00,29.9,17.6,29.87,SW,225,5.4,5.4,60,0.00,,,0.00,WUHU216HW,2013-01-09 07:57:00,
2013-01-09 00:58:00,29.9,17.6,29.87,SW,225,5.4,5.4,60,0.00,,,0.00,WUHU216HW,2013-01-09 07:58:00,
2013-01-09 01:01:00,29.9,17.6,29.87,SSW,203,3.4,5.4,60,0.00,,,0.00,WUHU216HW,2013-01-09 08:01:00,
2013-01-09 01:02:00,29.9,17.6,29.86,SW,225,3.8,5.4,60,0.00,,,0.00,WUHU216HW,2013-01-09 08:02:00,
2013-01-09 01:03:00,29.9,17.6,29.86,SW,225,4.0,5.4,60,0.00,,,0.00,WUHU216HW,2013-01-09 08:03:00,
2013-01-09 01:06:00,29.9,17.6,29.86,WSW,248,1.1,5.4,60,0.00,,,0.00,WUHU216HW,2013-01-09 08:06:00,
2013-01-09 01:07:00,29.9,17.6,29.86,SW,225,2.9,5.4,60,0.00,,,0.00,WUHU216HW,2013-01-09 08:07:00,
2013-01-09 01:08:00,29.9,17.6,29.86,SW,225,2.7,5.1,60,0.00,,,0.00,WUHU216HW,2013-01-09 08:08:00,
2013-01-09 01:11:00,30.1,17.8,29.86,SW,225,4.3,5.4,60,0.00,,,0.00,WUHU216HW,2013-01-09 08:11:00,
2013-01-09 01:12:00,30.1,17.8,29.86,SW,225,4.3,5.4,60,0.00,,,0.00,WUHU216HW,2013-01-09 08:12:00,
2013-01-09 01:13:00,30.1,17.8,29.86,SSW,203,2.5,5.4,60,0.00,,,0.00,WUHU216HW,2013-01-09 08:13:00,
2013-01-09 01:16:00,30.2,18.0,29.86,SW,225,1.3,5.4,60,0.00,,,0.00,WUHU216HW,2013-01-09 08:16:00,
2013-01-09 01:17:00,30.2,17.6,29.86,SW,225,3.6,5.4,59,0.00,,,0.00,WUHU216HW,2013-01-09 08:17:00,
2013-01-09 01:18:00,30.2,17.6,29.86,WSW,248,1.6,5.4,59,0.00,,,0.00,WUHU216HW,2013-01-09 08:18:00,
2013-01-09 01:21:00,30.2,17.6,29.86,SW,225,1.1,4.3,59,0.00,,,0.00,WUHU216HW,2013-01-09 08:21:00,
2013-01-09 01:22:00,30.2,17.6,29.86,South,180,4.3,4.3,59,0.00,,,0.00,WUHU216HW,2013-01-09 08:22:00,
2013-01-09 01:23:00,30.2,17.6,29.86,WSW,248,2.7,4.3,59,0.00,,,0.00,WUHU216HW,2013-01-09 08:23:00,
2013-01-09 01:26:00,30.2,17.6,29.86,SW,225,2.2,4.3,59,0.00,,,0.00,WUHU216HW,2013-01-09 08:26:00,
2013-01-09 01:27:00,30.2,17.6,29.86,SSW,203,3.1,4.3,59,0.00,,,0.00,WUHU216HW,2013-01-09 08:27:00,
2013-01-09 01:28:00,30.2,17.6,29.86,SW,225,2.7,4.3,59,0.00,,,0.00,WUHU216HW,2013-01-09 08:28:00,
2013-01-09 01:32:00,30.1,17.5,29.86,SSW,203,2.0,4.3,59,0.00,,,0.00,WUHU216HW,2013-01-09 08:32:00,
2013-01-09 01:33:00,30.1,17.5,29.86,SSW,203,1.8,3.1,59,0.00,,,0.00,WUHU216HW,2013-01-09 08:33:00,
2013-01-09 01:37:00,30.1,17.5,29.86,SW,225,1.8,3.1,59,0.00,,,0.00,WUHU216HW,2013-01-09 08:37:00,
2013-01-09 01:38:00,30.1,17.5,29.86,SSW,203,0.4,2.2,59,0.00,,,0.00,WUHU216HW,2013-01-09 08:38:00,
2013-01-09 01:39:00,29.9,17.3,29.86,SSW,203,0.4,2.2,59,0.00,,,0.00,WUHU216HW,2013-01-09 08:39:00,
2013-01-09 01:42:00,29.9,17.3,29.86,SSW,203,0.0,1.8,59,0.00,,,0.00,WUHU216HW,2013-01-09 08:42:00,
2013-01-09 01:43:00,29.9,17.3,29.86,SSW,203,0.0,1.8,59,0.00,,,0.00,WUHU216HW,2013-01-09 08:43:00,
2013-01-09 01:44:00,29.9,17.3,29.86,SSW,203,0.7,1.8,59,0.00,,,0.00,WUHU216HW,2013-01-09 08:44:00,
2013-01-09 01:47:00,29.7,17.1,29.86,SSW,203,0.0,0.7,59,0.00,,,0.00,WUHU216HW,2013-01-09 08:47:00,
2013-01-09 01:48:00,29.7,17.1,29.86,SSW,203,0.0,0.7,59,0.00,,,0.00,WUHU216HW,2013-01-09 08:48:00,
2013-01-09 01:49:00,29.7,17.1,29.86,SW,225,0.4,0.7,59,0.00,,,0.00,WUHU216HW,2013-01-09 08:49:00,
2013-01-09 01:52:00,29.5,16.9,29.86,SW,225,1.8,1.8,59,0.00,,,0.00,WUHU216HW,2013-01-09 08:52:00,
2013-01-09 01:53:00,29.5,16.9,29.86,SW,225,1.8,1.8,59,0.00,,,0.00,WUHU216HW,2013-01-09 08:53:00,
2013-01-09 01:54:00,29.3,16.7,29.86,SW,225,1.8,1.8,59,0.00,,,0.00,WUHU216HW,2013-01-09 08:54:00,
2013-01-09 01:57:00,29.2,16.7,29.86,SW,225,1.1,1.8,59,0.00,,,0.00,WUHU216HW,2013-01-09 08:57:00,
2013-01-09 01:58:00,29.2,16.7,29.86,SSW,203,1.1,1.8,59,0.00,,,0.00,WUHU216HW,2013-01-09 08:58:00,
2013-01-09 01:59:00,29.2,16.7,29.86,SSW,203,1.6,1.8,59,0.00,,,0.00,WUHU216HW,2013-01-09 08:59:00,
2013-01-09 02:03:00,29.0,16.5,29.86,SW,225,0.9,1.8,59,0.00,,,0.00,WUHU216HW,2013-01-09 09:03:00,
2013-01-09 02:04:00,29.0,16.5,29.86,SW,225,0.7,1.8,59,0.00,,,0.00,WUHU216HW,2013-01-09 09:04:00,
2013-01-09 02:08:00,28.8,16.8,29.86,SW,225,1.8,1.8,60,0.00,,,0.00,WUHU216HW,2013-01-09 09:08:00,
2013-01-09 02:09:00,28.8,16.8,29.86,SSW,203,2.2,2.2,60,0.00,,,0.00,WUHU216HW,2013-01-09 09:09:00,
2013-01-09 02:13:00,28.6,16.6,29.86,SSW,203,3.1,3.1,60,0.00,,,0.00,WUHU216HW,2013-01-09 09:13:00,
2013-01-09 02:14:00,28.6,16.6,29.86,SW,225,2.2,3.1,60,0.00,,,0.00,WUHU216HW,2013-01-09 09:14:00,
2013-01-09 02:18:00,28.6,16.9,29.86,SSW,203,1.6,3.1,61,0.00,,,0.00,WUHU216HW,2013-01-09 09:18:00,
2013-01-09 02:19:00,28.6,16.9,29.86,SSW,203,0.7,3.1,61,0.00,,,0.00,WUHU216HW,2013-01-09 09:19:00,
2013-01-09 02:23:00,28.6,17.3,29.86,SW,225,1.1,2.2,62,0.00,,,0.00,WUHU216HW,2013-01-09 09:23:00,
2013-01-09 02:25:00,28.6,17.3,29.86,SW,225,1.6,1.6,62,0.00,,,0.00,WUHU216HW,2013-01-09 09:25:00,
2013-01-09 02:28:00,28.8,17.5,29.86,SSW,203,1.1,1.6,62,0.00,,,0.00,WUHU216HW,2013-01-09 09:28:00,
2013-01-09 02:29:00,28.8,17.5,29.86,SSW,203,0.4,1.6,62,0.00,,,0.00,WUHU216HW,2013-01-09 09:29:00,
2013-01-09 02:30:00,28.8,17.5,29.86,SSW,203,0.4,1.6,62,0.00,,,0.00,WUHU216HW,2013-01-09 09:30:00,
2013-01-09 02:33:00,28.8,17.5,29.86,South,180,0.4,1.6,62,0.00,,,0.00,WUHU216HW,2013-01-09 09:33:00,
2013-01-09 02:34:00,28.8,17.5,29.86,South,180,0.4,1.6,62,0.00,,,0.00,WUHU216HW,2013-01-09 09:34:00,
2013-01-09 02:35:00,29.0,17.6,29.86,SSW,203,0.0,1.6,62,0.00,,,0.00,WUHU216HW,2013-01-09 09:35:00,
2013-01-09 02:39:00,29.0,17.6,29.87,SSE,158,0.0,0.4,62,0.00,,,0.00,WUHU216HW,2013-01-09 09:39:00,
2013-01-09 02:40:00,29.0,17.6,29.87,SSE,158,0.0,0.4,62,0.00,,,0.00,WUHU216HW,2013-01-09 09:40:00,
2013-01-09 02:41:00,29.0,17.6,29.87,SSE,158,0.2,0.4,62,0.00,,,0.00,WUHU216HW,2013-01-09 09:41:00,
2013-01-09 02:44:00,29.0,17.6,29.86,South,180,0.4,0.7,62,0.00,,,0.00,WUHU216HW,2013-01-09 09:44:00,
2013-01-09 02:45:00,29.0,17.6,29.86,South,180,0.4,0.7,62,0.00,,,0.00,WUHU216HW,2013-01-09 09:45:00,
2013-01-09 02:46:00,29.0,17.6,29.86,South,180,0.7,0.7,62,0.00,,,0.00,WUHU216HW,2013-01-09 09:46:00,
2013-01-09 02:49:00,29.0,17.6,29.86,SSW,203,1.8,1.8,62,0.00,,,0.00,WUHU216HW,2013-01-09 09:49:00,
2013-01-09 02:50:00,29.0,17.6,29.86,SW,225,0.9,1.8,62,0.00,,,0.00,WUHU216HW,2013-01-09 09:50:00,
2013-01-09 02:51:00,29.0,17.6,29.87,SW,225,0.0,1.8,62,0.00,,,0.00,WUHU216HW,2013-01-09 09:51:00,
2013-01-09 02:54:00,28.8,17.5,29.87,SSW,203,1.8,1.8,62,0.00,,,0.00,WUHU216HW,2013-01-09 09:54:00,
2013-01-09 02:55:00,29.0,17.6,29.86,SW,225,1.6,1.8,62,0.00,,,0.00,WUHU216HW,2013-01-09 09:55:00,
2013-01-09 02:57:00,29.0,17.6,29.86,SSW,203,1.1,1.8,62,0.00,,,0.00,WUHU216HW,2013-01-09 09:57:00,
2013-01-09 02:59:00,29.0,17.6,29.86,SW,225,1.1,1.8,62,0.00,,,0.00,WUHU216HW,2013-01-09 09:59:00,
2013-01-09 03:00:00,29.0,17.6,29.87,WSW,248,0.0,1.8,62,0.00,,,0.00,WUHU216HW,2013-01-09 10:00:00,
2013-01-09 03:02:00,29.0,17.6,29.86,SSW,203,0.4,1.8,62,0.00,,,0.00,WUHU216HW,2013-01-09 10:02:00,
2013-01-09 03:04:00,29.2,17.7,29.86,SSW,203,1.8,2.5,62,0.00,,,0.00,WUHU216HW,2013-01-09 10:04:00,
2013-01-09 03:05:00,29.2,17.7,29.86,SSW,203,1.6,2.5,62,0.00,,,0.00,WUHU216HW,2013-01-09 10:05:00,
2013-01-09 03:07:00,29.2,17.7,29.86,SW,225,1.8,2.5,62,0.00,,,0.00,WUHU216HW,2013-01-09 10:07:00,
2013-01-09 03:10:00,29.3,18.3,29.86,SSW,203,1.6,2.5,63,0.00,,,0.00,WUHU216HW,2013-01-09 10:10:00,
2013-01-09 03:13:00,29.3,18.6,29.86,SSW,203,0.7,1.8,64,0.00,,,0.00,WUHU216HW,2013-01-09 10:13:00,
2013-01-09 03:15:00,29.3,18.6,29.86,SSW,203,1.1,1.8,64,0.00,,,0.00,WUHU216HW,2013-01-09 10:15:00,
2013-01-09 03:18:00,29.5,18.8,29.86,SSW,203,0.4,1.6,64,0.00,,,0.00,WUHU216HW,2013-01-09 10:18:00,
2013-01-09 03:20:00,29.7,19.0,29.86,SW,225,1.1,2.2,64,0.00,,,0.00,WUHU216HW,2013-01-09 10:20:00,
2013-01-09 03:23:00,29.7,19.0,29.86,SSW,203,0.7,2.2,64,0.00,,,0.00,WUHU216HW,2013-01-09 10:23:00,
2013-01-09 03:25:00,29.9,19.1,29.87,SSW,203,0.4,2.2,64,0.00,,,0.00,WUHU216HW,2013-01-09 10:25:00,
2013-01-09 03:28:00,30.1,19.3,29.86,SSW,203,1.3,2.2,64,0.00,,,0.00,WUHU216HW,2013-01-09 10:28:00,
2013-01-09 03:30:00,30.2,19.4,29.86,SW,225,0.4,1.8,64,0.00,,,0.00,WUHU216HW,2013-01-09 10:30:00,
2013-01-09 03:31:00,30.2,19.4,29.86,SW,225,0.4,1.8,64,0.00,,,0.00,WUHU216HW,2013-01-09 10:31:00,
2013-01-09 03:33:00,30.4,19.6,29.86,SSW,203,0.4,1.3,64,0.00,,,0.00,WUHU216HW,2013-01-09 10:33:00,
2013-01-09 03:35:00,30.4,19.6,29.86,SSW,203,1.3,2.9,64,0.00,,,0.00,WUHU216HW,2013-01-09 10:35:00,
2013-01-09 03:36:00,30.4,19.6,29.86,SSW,203,1.3,2.9,64,0.00,,,0.00,WUHU216HW,2013-01-09 10:36:00,
2013-01-09 03:38:00,30.6,19.8,29.86,SSW,203,1.1,2.9,64,0.00,,,0.00,WUHU216HW,2013-01-09 10:38:00,
2013-01-09 03:40:00,30.6,19.8,29.86,SSW,203,1.1,2.9,64,0.00,,,0.00,WUHU216HW,2013-01-09 10:40:00,
2013-01-09 03:41:00,30.6,19.8,29.86,WSW,248,2.0,2.9,64,0.00,,,0.00,WUHU216HW,2013-01-09 10:41:00,
2013-01-09 03:43:00,30.6,19.8,29.86,SSW,203,0.7,2.9,64,0.00,,,0.00,WUHU216HW,2013-01-09 10:43:00,
2013-01-09 03:45:00,30.8,20.0,29.86,SW,225,1.6,2.2,64,0.00,,,0.00,WUHU216HW,2013-01-09 10:45:00,
2013-01-09 03:46:00,30.8,20.0,29.86,SW,225,1.6,2.2,64,0.00,,,0.00,WUHU216HW,2013-01-09 10:46:00,
2013-01-09 03:48:00,31.0,20.2,29.86,SSW,203,1.6,2.5,64,0.00,,,0.00,WUHU216HW,2013-01-09 10:48:00,
2013-01-09 03:50:00,31.0,20.2,29.86,SW,225,1.3,2.5,64,0.00,,,0.00,WUHU216HW,2013-01-09 10:50:00,
2013-01-09 03:51:00,31.0,20.2,29.86,SW,225,1.3,2.5,64,0.00,,,0.00,WUHU216HW,2013-01-09 10:51:00,
2013-01-09 03:53:00,31.1,20.3,29.86,SW,225,0.9,2.5,64,0.00,,,0.00,WUHU216HW,2013-01-09 10:53:00,
2013-01-09 03:55:00,31.3,20.5,29.86,SSW,203,1.6,2.5,64,0.00,,,0.00,WUHU216HW,2013-01-09 10:55:00,
2013-01-09 03:56:00,31.3,20.5,29.86,SSW,203,1.6,1.8,64,0.00,,,0.00,WUHU216HW,2013-01-09 10:56:00,
2013-01-09 03:58:00,31.3,20.5,29.86,SW,225,1.3,1.8,64,0.00,,,0.00,WUHU216HW,2013-01-09 10:58:00,
2013-01-09 04:00:00,31.5,20.3,29.86,SW,225,0.7,1.8,63,0.00,,,0.00,WUHU216HW,2013-01-09 11:00:00,
2013-01-09 04:01:00,31.5,20.3,29.86,SW,225,1.6,1.8,63,0.00,,,0.00,WUHU216HW,2013-01-09 11:01:00,
2013-01-09 04:03:00,31.5,20.3,29.86,SW,225,1.8,2.0,63,0.00,,,0.00,WUHU216HW,2013-01-09 11:03:00,
2013-01-09 04:06:00,31.5,20.3,29.86,SW,225,2.0,2.0,63,0.00,,,0.00,WUHU216HW,2013-01-09 11:06:00,
2013-01-09 04:10:00,31.5,20.3,29.86,West,270,2.2,2.2,63,0.00,,,0.00,WUHU216HW,2013-01-09 11:10:00,
2013-01-09 04:11:00,31.5,20.3,29.86,West,270,2.2,2.2,63,0.00,,,0.00,WUHU216HW,2013-01-09 11:11:00,
2013-01-09 04:15:00,31.7,20.5,29.86,WSW,248,4.0,4.0,63,0.00,,,0.00,WUHU216HW,2013-01-09 11:15:00,
2013-01-09 04:16:00,31.7,20.5,29.86,WSW,248,4.0,4.0,63,0.00,,,0.00,WUHU216HW,2013-01-09 11:16:00,
2013-01-09 04:20:00,32.2,21.4,29.86,West,270,2.5,4.0,64,0.00,,,0.00,WUHU216HW,2013-01-09 11:20:00,
2013-01-09 04:21:00,32.4,21.6,29.86,WSW,248,2.2,4.0,64,0.00,,,0.00,WUHU216HW,2013-01-09 11:21:00,
2013-01-09 04:22:00,32.4,21.6,29.86,WSW,248,2.2,4.0,64,0.00,,,0.00,WUHU216HW,2013-01-09 11:22:00,
2013-01-09 04:25:00,32.9,21.7,29.87,WSW,248,1.8,3.4,63,0.00,,,0.00,WUHU216HW,2013-01-09 11:25:00,
2013-01-09 04:26:00,32.9,21.7,29.86,West,270,1.1,3.4,63,0.00,,,0.00,WUHU216HW,2013-01-09 11:26:00,
2013-01-09 04:27:00,33.1,21.9,29.86,SW,225,1.1,2.7,63,0.00,,,0.00,WUHU216HW,2013-01-09 11:27:00,
2013-01-09 04:30:00,33.3,21.7,29.86,WSW,248,2.5,2.5,62,0.00,,,0.00,WUHU216HW,2013-01-09 11:30:00,
2013-01-09 04:31:00,33.3,21.7,29.86,SW,225,2.7,2.7,62,0.00,,,0.00,WUHU216HW,2013-01-09 11:31:00,
2013-01-09 04:32:00,33.3,21.7,29.86,WSW,248,4.7,4.7,62,0.00,,,0.00,WUHU216HW,2013-01-09 11:32:00,
2013-01-09 04:36:00,33.5,21.8,29.86,West,270,2.9,4.7,62,0.00,,,0.00,WUHU216HW,2013-01-09 11:36:00,
2013-01-09 04:37:00,33.5,21.8,29.86,WSW,248,4.0,4.7,62,0.00,,,0.00,WUHU216HW,2013-01-09 11:37:00,
2013-01-09 04:41:00,34.0,22.3,29.85,WSW,248,4.5,4.7,62,0.00,,,0.00,WUHU216HW,2013-01-09 11:41:00,
2013-01-09 04:42:00,34.0,22.3,29.85,WSW,248,4.5,4.7,62,0.00,,,0.00,WUHU216HW,2013-01-09 11:42:00,
2013-01-09 04:46:00,34.6,22.5,29.85,West,270,4.7,4.7,61,0.00,,,0.00,WUHU216HW,2013-01-09 11:46:00,
2013-01-09 04:47:00,34.6,22.5,29.85,WSW,248,3.1,4.7,61,0.00,,,0.00,WUHU216HW,2013-01-09 11:47:00,
2013-01-09 04:51:00,34.7,22.7,29.85,SW,225,3.4,4.7,61,0.00,,,0.00,WUHU216HW,2013-01-09 11:51:00,
2013-01-09 04:52:00,34.7,22.7,29.85,WSW,248,3.4,4.7,61,0.00,,,0.00,WUHU216HW,2013-01-09 11:52:00,
2013-01-09 04:56:00,34.6,22.1,29.85,SSW,203,2.5,4.7,60,0.00,,,0.00,WUHU216HW,2013-01-09 11:56:00,
2013-01-09 04:57:00,34.6,22.1,29.85,SSW,203,2.5,4.7,60,0.00,,,0.00,WUHU216HW,2013-01-09 11:57:00,
2013-01-09 05:01:00,34.6,22.1,29.85,SSW,203,2.5,4.7,60,0.00,,,0.00,WUHU216HW,2013-01-09 12:01:00,
2013-01-09 05:03:00,34.6,22.1,29.85,SSW,203,1.8,4.7,60,0.00,,,0.00,WUHU216HW,2013-01-09 12:03:00,
2013-01-09 05:06:00,34.6,22.1,29.85,SSW,203,0.4,3.6,60,0.00,,,0.00,WUHU216HW,2013-01-09 12:06:00,
2013-01-09 05:08:00,34.4,22.0,29.85,SSE,158,1.6,3.6,60,0.00,,,0.00,WUHU216HW,2013-01-09 12:08:00,
2013-01-09 05:12:00,34.4,22.0,29.85,SSW,203,1.1,1.6,60,0.00,,,0.00,WUHU216HW,2013-01-09 12:12:00,
2013-01-09 05:13:00,34.4,22.0,29.85,South,180,0.0,1.6,60,0.00,,,0.00,WUHU216HW,2013-01-09 12:13:00,
2013-01-09 05:17:00,34.2,21.3,29.85,SSW,203,0.0,1.6,59,0.00,,,0.00,WUHU216HW,2013-01-09 12:17:00,
2013-01-09 05:18:00,34.2,21.3,29.85,South,180,0.4,1.1,59,0.00,,,0.00,WUHU216HW,2013-01-09 12:18:00,
2013-01-09 05:22:00,34.2,21.3,29.84,SW,225,1.6,1.8,59,0.00,,,0.00,WUHU216HW,2013-01-09 12:22:00,
2013-01-09 05:23:00,34.0,21.2,29.84,SSW,203,2.0,2.0,59,0.00,,,0.00,WUHU216HW,2013-01-09 12:23:00,
2013-01-09 05:27:00,33.8,21.0,29.84,NNW,338,1.3,2.0,59,0.00,,,0.00,WUHU216HW,2013-01-09 12:27:00,
2013-01-09 05:28:00,33.8,21.0,29.84,West,270,4.7,4.7,59,0.00,,,0.00,WUHU216HW,2013-01-09 12:28:00,
2013-01-09 05:29:00,33.8,21.0,29.84,West,270,4.7,4.7,59,0.00,,,0.00,WUHU216HW,2013-01-09 12:29:00,
2013-01-09 05:32:00,34.0,21.6,29.84,WNW,293,2.2,4.7,60,0.00,,,0.00,WUHU216HW,2013-01-09 12:32:00,
2013-01-09 05:33:00,34.2,21.3,29.84,WNW,293,2.5,4.7,59,0.00,,,0.00,WUHU216HW,2013-01-09 12:33:00,
2013-01-09 05:34:00,34.2,21.3,29.84,WNW,293,2.5,4.7,59,0.00,,,0.00,WUHU216HW,2013-01-09 12:34:00,
2013-01-09 05:37:00,34.7,21.9,29.84,West,270,5.4,5.4,59,0.00,,,0.00,WUHU216HW,2013-01-09 12:37:00,
2013-01-09 05:38:00,34.9,22.5,29.84,West,270,5.6,5.6,60,0.00,,,0.00,WUHU216HW,2013-01-09 12:38:00,
2013-01-09 05:39:00,34.9,22.5,29.84,West,270,5.6,5.6,60,0.00,,,0.00,WUHU216HW,2013-01-09 12:39:00,
2013-01-09 05:42:00,36.2,23.3,29.83,West,270,2.5,6.0,59,0.00,,,0.00,WUHU216HW,2013-01-09 12:42:00,
2013-01-09 05:44:00,36.4,23.4,29.83,WSW,248,3.8,6.0,59,0.00,,,0.00,WUHU216HW,2013-01-09 12:44:00,
2013-01-09 05:48:00,37.1,23.2,29.83,WNW,293,2.7,6.0,57,0.00,,,0.00,WUHU216HW,2013-01-09 12:48:00,
2013-01-09 05:49:00,37.3,23.4,29.83,SW,225,5.4,6.0,57,0.00,,,0.00,WUHU216HW,2013-01-09 12:49:00,
2013-01-09 05:53:00,37.6,23.3,29.83,WSW,248,2.0,5.4,56,0.00,,,0.00,WUHU216HW,2013-01-09 12:53:00,
2013-01-09 05:54:00,37.8,23.4,29.83,SW,225,4.0,5.4,56,0.00,,,0.00,WUHU216HW,2013-01-09 12:54:00,
2013-01-09 05:55:00,37.8,23.4,29.83,SW,225,4.0,5.4,56,0.00,,,0.00,WUHU216HW,2013-01-09 12:55:00,
2013-01-09 05:58:00,37.8,23.1,29.83,WSW,248,3.4,4.0,55,0.00,,,0.00,WUHU216HW,2013-01-09 12:58:00,
2013-01-09 05:59:00,37.8,23.1,29.83,West,270,3.1,4.0,55,0.00,,,0.00,WUHU216HW,2013-01-09 12:59:00,
2013-01-09 06:00:00,37.8,23.1,29.83,West,270,3.1,4.0,55,0.00,,,0.00,WUHU216HW,2013-01-09 13:00:00,
2013-01-09 06:03:00,37.6,22.9,29.84,WNW,293,3.1,4.0,55,0.00,,,0.00,WUHU216HW,2013-01-09 13:03:00,
2013-01-09 06:04:00,37.4,22.7,29.84,West,270,1.6,4.0,55,0.00,,,0.00,WUHU216HW,2013-01-09 13:04:00,
2013-01-09 06:05:00,37.4,22.7,29.83,West,270,2.7,4.0,55,0.00,,,0.00,WUHU216HW,2013-01-09 13:05:00,
2013-01-09 06:08:00,37.1,22.3,29.84,West,270,4.5,4.5,55,0.00,,,0.00,WUHU216HW,2013-01-09 13:08:00,
2013-01-09 06:09:00,37.1,22.3,29.84,West,270,3.6,4.5,55,0.00,,,0.00,WUHU216HW,2013-01-09 13:09:00,
2013-01-09 06:10:00,37.1,22.3,29.84,West,270,3.6,4.5,55,0.00,,,0.00,WUHU216HW,2013-01-09 13:10:00,
2013-01-09 06:13:00,37.1,22.3,29.84,West,270,3.1,4.5,55,0.00,,,0.00,WUHU216HW,2013-01-09 13:13:00,
2013-01-09 06:14:00,37.1,22.3,29.84,West,270,3.6,4.5,55,0.00,,,0.00,WUHU216HW,2013-01-09 13:14:00,
2013-01-09 06:15:00,37.1,22.3,29.84,WSW,248,3.6,4.5,55,0.00,,,0.00,WUHU216HW,2013-01-09 13:15:00,
2013-01-09 06:18:00,37.1,22.3,29.84,SSW,203,3.6,3.6,55,0.00,,,0.00,WUHU216HW,2013-01-09 13:18:00,
2013-01-09 06:19:00,37.1,22.3,29.83,SSW,203,3.6,3.6,55,0.00,,,0.00,WUHU216HW,2013-01-09 13:19:00,
2013-01-09 06:20:00,37.1,22.3,29.84,WSW,248,2.2,3.6,55,0.00,,,0.00,WUHU216HW,2013-01-09 13:20:00,
2013-01-09 06:21:00,37.1,22.3,29.84,WSW,248,2.2,3.6,55,0.00,,,0.00,WUHU216HW,2013-01-09 13:21:00,
2013-01-09 06:23:00,37.1,22.3,29.83,SW,225,2.7,3.6,55,0.00,,,0.00,WUHU216HW,2013-01-09 13:23:00,
2013-01-09 06:24:00,37.1,22.3,29.83,West,270,3.4,3.6,55,0.00,,,0.00,WUHU216HW,2013-01-09 13:24:00,
2013-01-09 06:25:00,37.1,22.3,29.83,West,270,3.4,3.6,55,0.00,,,0.00,WUHU216HW,2013-01-09 13:25:00,
2013-01-09 06:26:00,37.3,22.5,29.83,West,270,4.0,4.0,55,0.00,,,0.00,WUHU216HW,2013-01-09 13:26:00,
2013-01-09 06:28:00,37.4,22.7,29.83,West,270,2.0,4.0,55,0.00,,,0.00,WUHU216HW,2013-01-09 13:28:00,
2013-01-09 06:29:00,37.4,22.7,29.83,WNW,293,2.5,4.0,55,0.00,,,0.00,WUHU216HW,2013-01-09 13:29:00,
2013-01-09 06:30:00,37.4,22.2,29.83,WNW,293,3.1,4.0,54,0.00,,,0.00,WUHU216HW,2013-01-09 13:30:00,
2013-01-09 06:31:00,37.4,22.2,29.83,NW,315,2.7,4.0,54,0.00,,,0.00,WUHU216HW,2013-01-09 13:31:00,
2013-01-09 06:33:00,37.4,22.2,29.84,WNW,293,2.5,4.0,54,0.00,,,0.00,WUHU216HW,2013-01-09 13:33:00,
2013-01-09 06:35:00,37.3,22.1,29.83,WSW,248,3.4,4.0,54,0.00,,,0.00,WUHU216HW,2013-01-09 13:35:00,
2013-01-09 06:36:00,37.4,22.2,29.84,West,270,1.1,4.0,54,0.00,,,0.00,WUHU216HW,2013-01-09 13:36:00,
2013-01-09 06:38:00,37.3,22.1,29.84,WSW,248,1.8,4.0,54,0.00,,,0.00,WUHU216HW,2013-01-09 13:38:00,
2013-01-09 06:40:00,37.3,22.1,29.84,SSW,203,1.1,4.0,54,0.00,,,0.00,WUHU216HW,2013-01-09 13:40:00,
2013-01-09 06:41:00,37.3,22.1,29.84,SSW,203,0.4,4.0,54,0.00,,,0.00,WUHU216HW,2013-01-09 13:41:00,
2013-01-09 06:43:00,37.3,22.1,29.84,SW,225,1.1,3.4,54,0.00,,,0.00,WUHU216HW,2013-01-09 13:43:00,
2013-01-09 06:45:00,37.3,22.1,29.84,South,180,0.9,1.8,54,0.00,,,0.00,WUHU216HW,2013-01-09 13:45:00,
2013-01-09 06:47:00,37.1,22.0,29.84,SSE,158,1.1,1.8,54,0.00,,,0.00,WUHU216HW,2013-01-09 13:47:00,
2013-01-09 06:48:00,37.3,22.1,29.84,SSE,158,0.4,1.1,54,0.00,,,0.00,WUHU216HW,2013-01-09 13:48:00,
2013-01-09 06:50:00,37.3,22.1,29.84,SSW,203,1.8,1.8,54,0.00,,,0.00,WUHU216HW,2013-01-09 13:50:00,
2013-01-09 06:51:00,37.3,22.1,29.84,SSW,203,1.8,1.8,54,0.00,,,0.00,WUHU216HW,2013-01-09 13:51:00,
2013-01-09 06:52:00,37.3,22.1,29.84,SSE,158,1.1,1.8,54,0.00,,,0.00,WUHU216HW,2013-01-09 13:52:00,
2013-01-09 06:54:00,37.3,22.1,29.84,SSE,158,1.3,1.8,54,0.00,,,0.00,WUHU216HW,2013-01-09 13:54:00,
2013-01-09 06:55:00,37.1,22.0,29.84,SW,225,0.9,1.8,54,0.00,,,0.00,WUHU216HW,2013-01-09 13:55:00,
2013-01-09 06:56:00,37.1,22.0,29.84,SW,225,0.9,1.8,54,0.00,,,0.00,WUHU216HW,2013-01-09 13:56:00,
2013-01-09 06:57:00,37.1,22.0,29.84,WSW,248,1.1,1.8,54,0.00,,,0.00,WUHU216HW,2013-01-09 13:57:00,
2013-01-09 06:59:00,37.1,22.0,29.85,WSW,248,0.7,2.9,54,0.00,,,0.00,WUHU216HW,2013-01-09 13:59:00,
2013-01-09 07:00:00,36.9,21.8,29.85,SSE,158,0.9,2.9,54,0.00,,,0.00,WUHU216HW,2013-01-09 14:00:00,
2013-01-09 07:01:00,36.9,21.8,29.85,SW,225,3.4,3.4,54,0.00,,,0.00,WUHU216HW,2013-01-09 14:01:00,
2013-01-09 07:02:00,36.7,21.6,29.85,SSW,203,2.5,3.4,54,0.00,,,0.00,WUHU216HW,2013-01-09 14:02:00,
2013-01-09 07:04:00,36.5,21.4,29.85,SSW,203,2.9,4.5,54,0.00,,,0.00,WUHU216HW,2013-01-09 14:04:00,
2013-01-09 07:05:00,36.5,21.4,29.85,SW,225,1.8,4.5,54,0.00,,,0.00,WUHU216HW,2013-01-09 14:05:00,
2013-01-09 07:06:00,36.5,21.4,29.85,South,180,3.6,4.5,54,0.00,,,0.00,WUHU216HW,2013-01-09 14:06:00,
2013-01-09 07:07:00,36.4,21.2,29.85,South,180,2.5,4.5,54,0.00,,,0.00,WUHU216HW,2013-01-09 14:07:00,
2013-01-09 07:09:00,36.4,21.7,29.85,SSW,203,1.8,4.5,55,0.00,,,0.00,WUHU216HW,2013-01-09 14:09:00,
2013-01-09 07:10:00,36.4,21.7,29.85,WSW,248,1.8,4.5,55,0.00,,,0.00,WUHU216HW,2013-01-09 14:10:00,
2013-01-09 07:12:00,36.4,21.7,29.85,SW,225,2.9,4.5,55,0.00,,,0.00,WUHU216HW,2013-01-09 14:12:00,
2013-01-09 07:14:00,36.2,21.5,29.85,SW,225,2.9,3.8,55,0.00,,,0.00,WUHU216HW,2013-01-09 14:14:00,
2013-01-09 07:15:00,36.2,21.5,29.85,SW,225,4.0,4.0,55,0.00,,,0.00,WUHU216HW,2013-01-09 14:15:00,
2013-01-09 07:17:00,36.0,21.4,29.85,WSW,248,2.2,4.0,55,0.00,,,0.00,WUHU216HW,2013-01-09 14:17:00,
2013-01-09 07:18:00,36.0,21.4,29.85,WSW,248,2.2,4.0,55,0.00,,,0.00,WUHU216HW,2013-01-09 14:18:00,
2013-01-09 07:19:00,36.0,21.4,29.85,WSW,248,2.7,4.0,55,0.00,,,0.00,WUHU216HW,2013-01-09 14:19:00,
2013-01-09 07:20:00,36.0,21.4,29.85,WSW,248,2.0,4.0,55,0.00,,,0.00,WUHU216HW,2013-01-09 14:20:00,
2013-01-09 07:22:00,36.0,21.4,29.85,WSW,248,2.7,4.0,55,0.00,,,0.00,WUHU216HW,2013-01-09 14:22:00,
2013-01-09 07:23:00,36.0,21.4,29.85,SW,225,2.5,4.0,55,0.00,,,0.00,WUHU216HW,2013-01-09 14:23:00,
2013-01-09 07:24:00,36.0,21.8,29.85,SW,225,2.2,4.0,56,0.00,,,0.00,WUHU216HW,2013-01-09 14:24:00,
2013-01-09 07:25:00,36.0,21.8,29.85,SW,225,3.4,4.0,56,0.00,,,0.00,WUHU216HW,2013-01-09 14:25:00,
2013-01-09 07:27:00,36.0,21.8,29.85,SW,225,3.6,4.0,56,0.00,,,0.00,WUHU216HW,2013-01-09 14:27:00,
2013-01-09 07:28:00,36.0,21.8,29.85,SW,225,3.6,3.6,56,0.00,,,0.00,WUHU216HW,2013-01-09 14:28:00,
2013-01-09 07:29:00,36.0,21.8,29.85,SW,225,2.5,3.6,56,0.00,,,0.00,WUHU216HW,2013-01-09 14:29:00,
2013-01-09 07:31:00,36.0,21.8,29.85,SW,225,4.0,4.0,56,0.00,,,0.00,WUHU216HW,2013-01-09 14:31:00,
2013-01-09 07:32:00,36.0,21.8,29.85,SSW,203,3.4,4.0,56,0.00,,,0.00,WUHU216HW,2013-01-09 14:32:00,
2013-01-09 07:33:00,36.0,21.8,29.85,WSW,248,2.7,4.0,56,0.00,,,0.00,WUHU216HW,2013-01-09 14:33:00,
2013-01-09 07:35:00,36.0,21.8,29.85,WSW,248,1.8,4.0,56,0.00,,,0.00,WUHU216HW,2013-01-09 14:35:00,
2013-01-09 07:36:00,36.0,21.8,29.85,SW,225,2.5,4.0,56,0.00,,,0.00,WUHU216HW,2013-01-09 14:36:00,
2013-01-09 07:37:00,36.0,21.8,29.85,SSW,203,2.9,4.0,56,0.00,,,0.00,WUHU216HW,2013-01-09 14:37:00,
2013-01-09 07:38:00,36.0,21.8,29.85,SSW,203,2.5,4.0,56,0.00,,,0.00,WUHU216HW,2013-01-09 14:38:00,
2013-01-09 07:40:00,36.2,22.0,29.85,SW,225,2.0,4.0,56,0.00,,,0.00,WUHU216HW,2013-01-09 14:40:00,
2013-01-09 07:41:00,36.2,22.0,29.85,SW,225,2.5,3.4,56,0.00,,,0.00,WUHU216HW,2013-01-09 14:41:00,
2013-01-09 07:42:00,36.2,22.0,29.85,SSW,203,3.6,3.6,56,0.00,,,0.00,WUHU216HW,2013-01-09 14:42:00,
2013-01-09 07:43:00,36.0,21.8,29.85,SW,225,3.1,3.6,56,0.00,,,0.00,WUHU216HW,2013-01-09 14:43:00,
2013-01-09 07:45:00,36.0,21.8,29.85,SSW,203,3.4,3.6,56,0.00,,,0.00,WUHU216HW,2013-01-09 14:45:00,
2013-01-09 07:46:00,36.0,21.8,29.85,South,180,2.5,3.6,56,0.00,,,0.00,WUHU216HW,2013-01-09 14:46:00,
2013-01-09 07:47:00,36.0,21.8,29.85,SW,225,1.8,3.6,56,0.00,,,0.00,WUHU216HW,2013-01-09 14:47:00,
2013-01-09 07:48:00,36.0,21.8,29.85,SSW,203,1.8,3.6,56,0.00,,,0.00,WUHU216HW,2013-01-09 14:48:00,
2013-01-09 07:51:00,36.0,21.8,29.85,SSW,203,1.6,3.6,56,0.00,,,0.00,WUHU216HW,2013-01-09 14:51:00,
2013-01-09 07:52:00,36.0,21.8,29.85,SSE,158,0.7,3.4,56,0.00,,,0.00,WUHU216HW,2013-01-09 14:52:00,
2013-01-09 07:53:00,36.0,21.8,29.85,SSE,158,0.2,3.4,56,0.00,,,0.00,WUHU216HW,2013-01-09 14:53:00,
2013-01-09 07:56:00,36.0,22.2,29.85,SSE,158,1.8,1.8,57,0.00,,,0.00,WUHU216HW,2013-01-09 14:56:00,
2013-01-09 07:57:00,36.2,22.4,29.85,SE,135,1.1,1.8,57,0.00,,,0.00,WUHU216HW,2013-01-09 14:57:00,
2013-01-09 07:58:00,36.2,22.4,29.85,SSW,203,0.7,1.8,57,0.00,,,0.00,WUHU216HW,2013-01-09 14:58:00,
2013-01-09 08:01:00,36.2,22.4,29.85,SSW,203,0.9,1.8,57,0.00,,,0.00,WUHU216HW,2013-01-09 15:01:00,
2013-01-09 08:02:00,36.2,22.4,29.85,SW,225,2.5,2.5,57,0.00,,,0.00,WUHU216HW,2013-01-09 15:02:00,
2013-01-09 08:04:00,36.2,22.0,29.85,SSW,203,2.2,2.5,56,0.00,,,0.00,WUHU216HW,2013-01-09 15:04:00,
2013-01-09 08:06:00,36.0,21.8,29.85,SW,225,4.5,4.5,56,0.00,,,0.00,WUHU216HW,2013-01-09 15:06:00,
2013-01-09 08:07:00,36.0,21.8,29.85,SSW,203,4.0,4.5,56,0.00,,,0.00,WUHU216HW,2013-01-09 15:07:00,
2013-01-09 08:08:00,36.0,21.8,29.85,SSW,203,4.0,4.5,56,0.00,,,0.00,WUHU216HW,2013-01-09 15:08:00,
2013-01-09 08:09:00,35.8,22.1,29.85,SSW,203,2.5,4.5,57,0.00,,,0.00,WUHU216HW,2013-01-09 15:09:00,
2013-01-09 08:11:00,35.8,22.1,29.85,SW,225,4.9,4.9,57,0.00,,,0.00,WUHU216HW,2013-01-09 15:11:00,
2013-01-09 08:12:00,35.6,22.0,29.86,SW,225,2.5,4.9,57,0.00,,,0.00,WUHU216HW,2013-01-09 15:12:00,
2013-01-09 08:13:00,35.6,22.0,29.85,SSW,203,3.1,4.9,57,0.00,,,0.00,WUHU216HW,2013-01-09 15:13:00,
2013-01-09 08:15:00,35.6,22.0,29.85,West,270,2.2,4.9,57,0.00,,,0.00,WUHU216HW,2013-01-09 15:15:00,
2013-01-09 08:16:00,35.6,22.0,29.86,SSW,203,1.8,4.9,57,0.00,,,0.00,WUHU216HW,2013-01-09 15:16:00,
2013-01-09 08:17:00,35.6,22.0,29.86,SW,225,2.5,4.9,57,0.00,,,0.00,WUHU216HW,2013-01-09 15:17:00,
2013-01-09 08:18:00,35.6,22.0,29.86,SW,225,2.2,4.9,57,0.00,,,0.00,WUHU216HW,2013-01-09 15:18:00,
2013-01-09 08:20:00,35.6,22.0,29.86,SW,225,2.2,4.9,57,0.00,,,0.00,WUHU216HW,2013-01-09 15:20:00,
2013-01-09 08:21:00,35.6,22.0,29.85,SSW,203,1.6,3.1,57,0.00,,,0.00,WUHU216HW,2013-01-09 15:21:00,
2013-01-09 08:23:00,35.6,22.0,29.86,SSW,203,1.1,3.1,57,0.00,,,0.00,WUHU216HW,2013-01-09 15:23:00,
2013-01-09 08:25:00,35.6,22.0,29.86,SW,225,1.1,2.5,57,0.00,,,0.00,WUHU216HW,2013-01-09 15:25:00,
2013-01-09 08:26:00,35.6,22.0,29.86,SSW,203,0.7,2.5,57,0.00,,,0.00,WUHU216HW,2013-01-09 15:26:00,
2013-01-09 08:28:00,35.6,22.0,29.86,SE,135,0.7,2.5,57,0.00,,,0.00,WUHU216HW,2013-01-09 15:28:00,
2013-01-09 08:30:00,35.6,22.0,29.86,SSW,203,0.2,2.5,57,0.00,,,0.00,WUHU216HW,2013-01-09 15:30:00,
2013-01-09 08:32:00,35.6,22.0,29.86,SW,225,2.5,2.5,57,0.00,,,0.00,WUHU216HW,2013-01-09 15:32:00,
2013-01-09 08:33:00,35.6,22.0,29.86,SSW,203,1.1,2.5,57,0.00,,,0.00,WUHU216HW,2013-01-09 15:33:00,
2013-01-09 08:36:00,35.6,22.0,29.86,WSW,248,1.6,2.5,57,0.00,,,0.00,WUHU216HW,2013-01-09 15:36:00,
2013-01-09 08:37:00,35.6,22.0,29.86,SW,225,1.8,2.5,57,0.00,,,0.00,WUHU216HW,2013-01-09 15:37:00,
2013-01-09 08:38:00,35.6,22.0,29.86,SW,225,1.8,2.5,57,0.00,,,0.00,WUHU216HW,2013-01-09 15:38:00,
2013-01-09 08:39:00,35.6,22.0,29.86,SW,225,1.8,2.5,57,0.00,,,0.00,WUHU216HW,2013-01-09 15:39:00,
2013-01-09 08:41:00,35.6,22.3,29.85,WSW,248,3.4,3.4,58,0.00,,,0.00,WUHU216HW,2013-01-09 15:41:00,
2013-01-09 08:42:00,35.6,22.3,29.85,WSW,248,3.1,3.4,58,0.00,,,0.00,WUHU216HW,2013-01-09 15:42:00,
2013-01-09 08:43:00,35.6,22.3,29.85,West,270,3.4,3.4,58,0.00,,,0.00,WUHU216HW,2013-01-09 15:43:00,
2013-01-09 08:44:00,35.6,22.3,29.85,West,270,3.4,3.4,58,0.00,,,0.00,WUHU216HW,2013-01-09 15:44:00,
2013-01-09 08:46:00,35.6,22.3,29.85,SW,225,3.1,3.4,58,0.00,,,0.00,WUHU216HW,2013-01-09 15:46:00,
2013-01-09 08:47:00,35.8,22.5,29.85,SW,225,3.1,3.4,58,0.00,,,0.00,WUHU216HW,2013-01-09 15:47:00,
2013-01-09 08:48:00,35.8,22.5,29.85,SW,225,3.1,3.4,58,0.00,,,0.00,WUHU216HW,2013-01-09 15:48:00,
2013-01-09 08:49:00,35.8,22.5,29.85,SW,225,3.1,3.4,58,0.00,,,0.00,WUHU216HW,2013-01-09 15:49:00,
2013-01-09 08:51:00,36.2,22.9,29.85,SW,225,3.1,3.4,58,0.00,,,0.00,WUHU216HW,2013-01-09 15:51:00,
2013-01-09 08:53:00,36.2,22.9,29.86,SW,225,3.1,3.4,58,0.00,,,0.00,WUHU216HW,2013-01-09 15:53:00,
2013-01-09 08:54:00,36.4,23.1,29.85,WSW,248,2.7,3.1,58,0.00,,,0.00,WUHU216HW,2013-01-09 15:54:00,
2013-01-09 08:56:00,36.7,23.3,29.85,West,270,2.7,3.1,58,0.00,,,0.00,WUHU216HW,2013-01-09 15:56:00,
2013-01-09 08:58:00,37.1,23.7,29.85,WSW,248,2.5,3.1,58,0.00,,,0.00,WUHU216HW,2013-01-09 15:58:00,
2013-01-09 08:59:00,37.1,23.7,29.85,WSW,248,2.5,3.1,58,0.00,,,0.00,WUHU216HW,2013-01-09 15:59:00,
2013-01-09 09:01:00,37.4,23.9,29.85,West,270,1.8,3.4,58,0.00,,,0.00,WUHU216HW,2013-01-09 16:01:00,
2013-01-09 09:03:00,37.8,23.9,29.85,West,270,2.5,3.4,57,0.00,,,0.00,WUHU216HW,2013-01-09 16:03:00,
2013-01-09 09:04:00,37.8,23.9,29.84,WSW,248,2.2,3.4,57,0.00,,,0.00,WUHU216HW,2013-01-09 16:04:00,
2013-01-09 09:06:00,38.0,24.0,29.85,West,270,1.8,3.4,57,0.00,,,0.00,WUHU216HW,2013-01-09 16:06:00,
2013-01-09 09:08:00,38.2,24.2,29.85,West,270,2.2,3.4,57,0.00,,,0.00,WUHU216HW,2013-01-09 16:08:00,
2013-01-09 09:09:00,38.2,24.2,29.85,West,270,2.2,3.4,57,0.00,,,0.00,WUHU216HW,2013-01-09 16:09:00,
2013-01-09 09:11:00,38.3,24.4,29.84,West,270,2.5,2.5,57,0.00,,,0.00,WUHU216HW,2013-01-09 16:11:00,
2013-01-09 09:13:00,38.5,24.1,29.84,West,270,0.7,2.5,56,0.00,,,0.00,WUHU216HW,2013-01-09 16:13:00,
2013-01-09 09:14:00,38.5,24.1,29.84,WSW,248,1.6,2.5,56,0.00,,,0.00,WUHU216HW,2013-01-09 16:14:00,
2013-01-09 09:16:00,38.7,24.2,29.85,SW,225,1.3,2.5,56,0.00,,,0.00,WUHU216HW,2013-01-09 16:16:00,
2013-01-09 09:18:00,38.9,24.4,29.85,SW,225,2.5,2.5,56,0.00,,,0.00,WUHU216HW,2013-01-09 16:18:00,
2013-01-09 09:19:00,38.9,24.4,29.85,SW,225,1.1,2.5,56,0.00,,,0.00,WUHU216HW,2013-01-09 16:19:00,
2013-01-09 09:20:00,38.9,24.4,29.85,SW,225,1.1,2.5,56,0.00,,,0.00,WUHU216HW,2013-01-09 16:20:00,
2013-01-09 09:21:00,39.1,24.6,29.85,WSW,248,1.1,2.5,56,0.00,,,0.00,WUHU216HW,2013-01-09 16:21:00,
2013-01-09 09:23:00,39.1,24.6,29.85,SW,225,1.8,2.5,56,0.00,,,0.00,WUHU216HW,2013-01-09 16:23:00,
2013-01-09 09:24:00,39.2,24.8,29.85,SW,225,2.0,2.5,56,0.00,,,0.00,WUHU216HW,2013-01-09 16:24:00,
2013-01-09 09:25:00,39.2,24.8,29.85,SW,225,1.8,2.5,56,0.00,,,0.00,WUHU216HW,2013-01-09 16:25:00,
2013-01-09 09:27:00,39.2,24.8,29.85,SW,225,1.3,2.5,56,0.00,,,0.00,WUHU216HW,2013-01-09 16:27:00,
2013-01-09 09:29:00,39.6,25.1,29.85,West,270,1.8,2.7,56,0.00,,,0.00,WUHU216HW,2013-01-09 16:29:00,
2013-01-09 09:30:00,39.6,25.1,29.85,West,270,0.9,2.7,56,0.00,,,0.00,WUHU216HW,2013-01-09 16:30:00,
2013-01-09 09:32:00,39.8,25.3,29.85,WNW,293,2.9,2.9,56,0.00,,,0.00,WUHU216HW,2013-01-09 16:32:00,
2013-01-09 09:34:00,40.0,25.0,29.85,West,270,2.2,2.9,55,0.00,,,0.00,WUHU216HW,2013-01-09 16:34:00,
2013-01-09 09:35:00,40.1,25.1,29.85,WNW,293,4.5,4.5,55,0.00,,,0.00,WUHU216HW,2013-01-09 16:35:00,
2013-01-09 09:37:00,40.3,25.3,29.85,WNW,293,3.4,4.5,55,0.00,,,0.00,WUHU216HW,2013-01-09 16:37:00,
2013-01-09 09:39:00,40.9,25.8,29.85,WNW,293,1.8,4.5,55,0.00,,,0.00,WUHU216HW,2013-01-09 16:39:00,
2013-01-09 09:40:00,40.9,25.8,29.85,WNW,293,1.8,4.5,55,0.00,,,0.00,WUHU216HW,2013-01-09 16:40:00,
2013-01-09 09:42:00,41.2,25.8,29.84,NW,315,3.6,4.5,54,0.00,,,0.00,WUHU216HW,2013-01-09 16:42:00,
2013-01-09 09:44:00,41.6,26.1,29.85,WNW,293,4.3,4.5,54,0.00,,,0.00,WUHU216HW,2013-01-09 16:44:00,
2013-01-09 09:45:00,41.8,26.3,29.85,WNW,293,1.1,4.3,54,0.00,,,0.00,WUHU216HW,2013-01-09 16:45:00,
2013-01-09 09:46:00,41.8,26.3,29.85,WNW,293,1.1,4.3,54,0.00,,,0.00,WUHU216HW,2013-01-09 16:46:00,
2013-01-09 09:47:00,41.9,26.0,29.84,WNW,293,2.5,4.3,53,0.00,,,0.00,WUHU216HW,2013-01-09 16:47:00,
2013-01-09 09:50:00,42.7,26.6,29.84,NNW,338,3.4,4.3,53,0.00,,,0.00,WUHU216HW,2013-01-09 16:50:00,
2013-01-09 09:51:00,42.7,26.6,29.84,NNW,338,3.4,4.3,53,0.00,,,0.00,WUHU216HW,2013-01-09 16:51:00,
2013-01-09 09:52:00,42.8,26.8,29.84,North,0,3.4,4.3,53,0.00,,,0.00,WUHU216HW,2013-01-09 16:52:00,
2013-01-09 09:55:00,43.4,26.9,29.84,NW,315,2.9,3.4,52,0.00,,,0.00,WUHU216HW,2013-01-09 16:55:00,
2013-01-09 09:56:00,43.4,26.9,29.84,NW,315,2.9,3.4,52,0.00,,,0.00,WUHU216HW,2013-01-09 16:56:00,
2013-01-09 09:58:00,43.6,27.1,29.85,NNW,338,1.8,3.4,52,0.00,,,0.00,WUHU216HW,2013-01-09 16:58:00,
2013-01-09 10:00:00,43.9,27.0,29.85,NNW,338,1.3,3.4,51,0.00,,,0.00,WUHU216HW,2013-01-09 17:00:00,
2013-01-09 10:01:00,44.1,27.2,29.85,WNW,293,1.3,3.4,51,0.00,,,0.00,WUHU216HW,2013-01-09 17:01:00,
2013-01-09 10:03:00,44.3,27.3,29.85,WNW,293,1.3,3.4,51,0.00,,,0.00,WUHU216HW,2013-01-09 17:03:00,
2013-01-09 10:05:00,44.6,27.6,29.85,West,270,1.1,3.4,51,0.00,,,0.00,WUHU216HW,2013-01-09 17:05:00,
2013-01-09 10:06:00,44.6,27.6,29.85,West,270,1.1,3.4,51,0.00,,,0.00,WUHU216HW,2013-01-09 17:06:00,
2013-01-09 10:08:00,44.8,27.4,29.84,West,270,2.5,2.5,50,0.00,,,0.00,WUHU216HW,2013-01-09 17:08:00,
2013-01-09 10:11:00,45.0,27.6,29.84,SW,225,0.9,2.5,50,0.00,,,0.00,WUHU216HW,2013-01-09 17:11:00,
2013-01-09 10:13:00,45.2,27.1,29.84,West,270,1.3,2.5,49,0.00,,,0.00,WUHU216HW,2013-01-09 17:13:00,
2013-01-09 10:16:00,45.4,27.3,29.84,WSW,248,1.6,2.5,49,0.00,,,0.00,WUHU216HW,2013-01-09 17:16:00,
2013-01-09 10:18:00,45.4,27.3,29.84,WNW,293,2.9,2.9,49,0.00,,,0.00,WUHU216HW,2013-01-09 17:18:00,
2013-01-09 10:21:00,45.5,27.5,29.84,WNW,293,1.3,2.9,49,0.00,,,0.00,WUHU216HW,2013-01-09 17:21:00,
2013-01-09 10:23:00,45.4,27.3,29.84,West,270,2.5,2.9,49,0.00,,,0.00,WUHU216HW,2013-01-09 17:23:00,
2013-01-09 10:26:00,45.5,26.9,29.84,WNW,293,2.0,2.9,48,0.00,,,0.00,WUHU216HW,2013-01-09 17:26:00,
2013-01-09 10:28:00,45.5,26.9,29.84,West,270,2.0,2.5,48,0.00,,,0.00,WUHU216HW,2013-01-09 17:28:00,
2013-01-09 10:31:00,45.5,26.9,29.84,WNW,293,1.6,2.5,48,0.00,,,0.00,WUHU216HW,2013-01-09 17:31:00,
2013-01-09 10:32:00,45.5,26.9,29.84,NW,315,1.1,2.5,48,0.00,,,0.00,WUHU216HW,2013-01-09 17:32:00,
2013-01-09 10:34:00,45.7,27.1,29.84,NW,315,0.4,2.0,48,0.00,,,0.00,WUHU216HW,2013-01-09 17:34:00,
2013-01-09 10:36:00,45.7,27.1,29.84,North,0,1.6,2.0,48,0.00,,,0.00,WUHU216HW,2013-01-09 17:36:00,
2013-01-09 10:37:00,45.7,27.1,29.84,North,0,1.6,2.0,48,0.00,,,0.00,WUHU216HW,2013-01-09 17:37:00,
2013-01-09 10:39:00,45.7,27.1,29.84,West,270,1.1,1.6,48,0.00,,,0.00,WUHU216HW,2013-01-09 17:39:00,
2013-01-09 10:41:00,45.7,27.1,29.83,WSW,248,1.1,1.6,48,0.00,,,0.00,WUHU216HW,2013-01-09 17:41:00,
2013-01-09 10:42:00,45.7,27.1,29.83,WSW,248,1.1,1.6,48,0.00,,,0.00,WUHU216HW,2013-01-09 17:42:00,
2013-01-09 10:44:00,45.9,26.7,29.84,SSW,203,2.7,2.7,47,0.00,,,0.00,WUHU216HW,2013-01-09 17:44:00,
2013-01-09 10:47:00,45.9,27.3,29.83,SSW,203,2.5,2.7,48,0.00,,,0.00,WUHU216HW,2013-01-09 17:47:00,
2013-01-09 10:49:00,45.9,27.3,29.83,WSW,248,1.1,2.7,48,0.00,,,0.00,WUHU216HW,2013-01-09 17:49:00,
2013-01-09 10:52:00,45.9,27.3,29.83,SSW,203,0.9,2.7,48,0.00,,,0.00,WUHU216HW,2013-01-09 17:52:00,
2013-01-09 10:54:00,45.9,26.7,29.83,SSW,203,1.8,2.5,47,0.00,,,0.00,WUHU216HW,2013-01-09 17:54:00,
2013-01-09 10:57:00,45.9,26.7,29.83,SW,225,1.1,2.0,47,0.00,,,0.00,WUHU216HW,2013-01-09 17:57:00,
2013-01-09 10:58:00,46.1,26.8,29.82,SW,225,1.6,2.0,47,0.00,,,0.00,WUHU216HW,2013-01-09 17:58:00,
2013-01-09 10:59:00,46.1,26.8,29.82,SW,225,2.0,2.0,47,0.00,,,0.00,WUHU216HW,2013-01-09 17:59:00,
2013-01-09 11:02:00,46.1,26.8,29.82,SW,225,2.2,2.2,47,0.00,,,0.00,WUHU216HW,2013-01-09 18:02:00,
2013-01-09 11:04:00,46.3,27.0,29.82,SSW,203,0.0,2.2,47,0.00,,,0.00,WUHU216HW,2013-01-09 18:04:00,
2013-01-09 11:07:00,46.3,27.0,29.82,SSW,203,1.3,2.2,47,0.00,,,0.00,WUHU216HW,2013-01-09 18:07:00,
2013-01-09 11:09:00,46.3,27.0,29.82,South,180,2.2,2.2,47,0.00,,,0.00,WUHU216HW,2013-01-09 18:09:00,
2013-01-09 11:12:00,46.4,27.2,29.82,South,180,0.9,2.2,47,0.00,,,0.00,WUHU216HW,2013-01-09 18:12:00,
2013-01-09 11:14:00,46.4,27.2,29.82,SW,225,1.6,2.2,47,0.00,,,0.00,WUHU216HW,2013-01-09 18:14:00,
2013-01-09 11:15:00,46.4,27.2,29.82,SSW,203,1.1,2.2,47,0.00,,,0.00,WUHU216HW,2013-01-09 18:15:00,
2013-01-09 11:17:00,46.4,27.2,29.81,SSE,158,0.0,2.2,47,0.00,,,0.00,WUHU216HW,2013-01-09 18:17:00,
2013-01-09 11:18:00,46.6,27.4,29.81,SW,225,0.0,1.6,47,0.00,,,0.00,WUHU216HW,2013-01-09 18:18:00,
2013-01-09 11:19:00,46.6,27.4,29.82,SW,225,0.0,1.6,47,0.00,,,0.00,WUHU216HW,2013-01-09 18:19:00,
2013-01-09 11:20:00,46.8,27.6,29.81,SW,225,0.0,1.6,47,0.00,,,0.00,WUHU216HW,2013-01-09 18:20:00,
2013-01-09 11:23:00,47.0,27.6,29.81,SSE,158,0.0,1.1,47,0.00,,,0.00,WUHU216HW,2013-01-09 18:23:00,
2013-01-09 11:24:00,47.2,27.8,29.81,East,90,0.0,1.1,47,0.00,,,0.00,WUHU216HW,2013-01-09 18:24:00,
2013-01-09 11:25:00,47.2,27.8,29.81,East,90,0.0,0.2,47,0.00,,,0.00,WUHU216HW,2013-01-09 18:25:00,
2013-01-09 11:28:00,47.5,27.6,29.81,NE,45,0.0,0.0,46,0.00,,,0.00,WUHU216HW,2013-01-09 18:28:00,
2013-01-09 11:29:00,47.5,27.6,29.81,NE,45,0.0,0.0,46,0.00,,,0.00,WUHU216HW,2013-01-09 18:29:00,
2013-01-09 11:30:00,47.7,27.8,29.81,NE,45,0.0,0.0,46,0.00,,,0.00,WUHU216HW,2013-01-09 18:30:00,
2013-01-09 11:33:00,47.9,27.9,29.80,NE,45,0.0,0.0,46,0.00,,,0.00,WUHU216HW,2013-01-09 18:33:00,
2013-01-09 11:34:00,47.9,27.9,29.80,NE,45,0.0,0.0,46,0.00,,,0.00,WUHU216HW,2013-01-09 18:34:00,
2013-01-09 11:35:00,47.9,27.9,29.80,NE,45,0.0,0.0,46,0.00,,,0.00,WUHU216HW,2013-01-09 18:35:00,
2013-01-09 11:38:00,48.1,28.1,29.81,NE,45,0.0,0.0,46,0.00,,,0.00,WUHU216HW,2013-01-09 18:38:00,
2013-01-09 11:39:00,48.2,28.3,29.81,NE,45,0.0,0.0,46,0.00,,,0.00,WUHU216HW,2013-01-09 18:39:00,
2013-01-09 11:40:00,48.2,27.7,29.81,NE,45,0.0,0.0,45,0.00,,,0.00,WUHU216HW,2013-01-09 18:40:00,
2013-01-09 11:41:00,48.2,27.7,29.81,NE,45,0.0,0.0,45,0.00,,,0.00,WUHU216HW,2013-01-09 18:41:00,
2013-01-09 11:44:00,48.4,27.9,29.80,NE,45,0.0,0.0,45,0.00,,,0.00,WUHU216HW,2013-01-09 18:44:00,
2013-01-09 11:48:00,48.6,28.1,29.80,NE,45,0.0,0.0,45,0.00,,,0.00,WUHU216HW,2013-01-09 18:48:00,
2013-01-09 11:49:00,48.8,28.3,29.80,NE,45,0.0,0.0,45,0.00,,,0.00,WUHU216HW,2013-01-09 18:49:00,
2013-01-09 11:53:00,49.0,28.5,29.80,ENE,68,0.0,0.0,45,0.00,,,0.00,WUHU216HW,2013-01-09 18:53:00,
2013-01-09 11:54:00,49.1,28.6,29.79,ENE,68,0.0,0.0,45,0.00,,,0.00,WUHU216HW,2013-01-09 18:54:00,
2013-01-09 11:58:00,49.3,28.7,29.79,SE,135,0.0,0.4,45,0.00,,,0.00,WUHU216HW,2013-01-09 18:58:00,
2013-01-09 11:59:00,49.3,28.7,29.79,SE,135,0.0,0.4,45,0.00,,,0.00,WUHU216HW,2013-01-09 18:59:00,
2013-01-09 12:03:00,49.7,28.5,29.79,SW,225,0.4,0.7,44,0.00,,,0.00,WUHU216HW,2013-01-09 19:03:00,
2013-01-09 12:04:00,49.9,28.7,29.79,SSW,203,1.1,1.1,44,0.00,,,0.00,WUHU216HW,2013-01-09 19:04:00,
2013-01-09 12:08:00,50.0,28.9,29.78,SW,225,0.9,1.1,44,0.00,,,0.00,WUHU216HW,2013-01-09 19:08:00,
2013-01-09 12:09:00,50.2,28.4,29.78,SW,225,0.4,1.1,43,0.00,,,0.00,WUHU216HW,2013-01-09 19:09:00,
2013-01-09 12:13:00,50.6,28.8,29.78,SSE,158,1.3,1.3,43,0.00,,,0.00,WUHU216HW,2013-01-09 19:13:00,
2013-01-09 12:14:00,50.6,28.3,29.78,SSE,158,1.8,1.8,42,0.00,,,0.00,WUHU216HW,2013-01-09 19:14:00,
2013-01-09 12:15:00,50.6,28.3,29.78,SSE,158,1.8,1.8,42,0.00,,,0.00,WUHU216HW,2013-01-09 19:15:00,
2013-01-09 12:19:00,51.1,28.7,29.77,SSE,158,1.1,1.8,42,0.00,,,0.00,WUHU216HW,2013-01-09 19:19:00,
2013-01-09 12:20:00,51.1,28.7,29.77,SSE,158,1.1,1.8,42,0.00,,,0.00,WUHU216HW,2013-01-09 19:20:00,
2013-01-09 12:24:00,51.5,29.6,29.77,SSE,158,1.1,1.1,43,0.00,,,0.00,WUHU216HW,2013-01-09 19:24:00,
2013-01-09 12:25:00,51.5,29.6,29.77,SE,135,1.8,1.8,43,0.00,,,0.00,WUHU216HW,2013-01-09 19:25:00,
2013-01-09 12:29:00,51.8,29.3,29.77,SSE,158,0.0,1.8,42,0.00,,,0.00,WUHU216HW,2013-01-09 19:29:00,
2013-01-09 12:30:00,51.8,29.3,29.77,SSE,158,0.0,1.8,42,0.00,,,0.00,WUHU216HW,2013-01-09 19:30:00,
2013-01-09 12:34:00,52.4,29.4,29.77,NNW,338,0.4,1.8,41,0.00,,,0.00,WUHU216HW,2013-01-09 19:34:00,
2013-01-09 12:35:00,52.6,29.4,29.77,NNW,338,0.4,1.8,41,0.00,,,0.00,WUHU216HW,2013-01-09 19:35:00,
2013-01-09 12:39:00,53.1,30.0,29.76,South,180,1.1,1.6,41,0.00,,,0.00,WUHU216HW,2013-01-09 19:39:00,
2013-01-09 12:40:00,53.1,30.0,29.76,South,180,1.1,1.6,41,0.00,,,0.00,WUHU216HW,2013-01-09 19:40:00,
2013-01-09 12:41:00,53.3,28.9,29.76,WNW,293,2.7,2.7,39,0.00,,,0.00,WUHU216HW,2013-01-09 19:41:00,
2013-01-09 12:44:00,54.0,29.5,29.76,WSW,248,1.6,2.7,39,0.00,,,0.00,WUHU216HW,2013-01-09 19:44:00,
2013-01-09 12:45:00,54.0,29.5,29.76,WSW,248,1.6,2.7,39,0.00,,,0.00,WUHU216HW,2013-01-09 19:45:00,
2013-01-09 12:46:00,54.0,29.5,29.76,SSW,203,0.7,2.7,39,0.00,,,0.00,WUHU216HW,2013-01-09 19:46:00,
2013-01-09 12:49:00,54.4,29.9,29.75,NNW,338,1.1,6.9,39,0.00,,,0.00,WUHU216HW,2013-01-09 19:49:00,
2013-01-09 12:50:00,54.4,29.9,29.75,NNW,338,1.1,6.9,39,0.00,,,0.00,WUHU216HW,2013-01-09 19:50:00,
2013-01-09 12:51:00,54.4,29.2,29.75,SW,225,1.8,6.9,38,0.00,,,0.00,WUHU216HW,2013-01-09 19:51:00,
2013-01-09 12:54:00,54.7,29.4,29.75,West,270,1.8,6.9,38,0.00,,,0.00,WUHU216HW,2013-01-09 19:54:00,
2013-01-09 12:55:00,54.7,29.4,29.75,West,270,1.8,6.9,38,0.00,,,0.00,WUHU216HW,2013-01-09 19:55:00,
2013-01-09 12:56:00,54.9,29.6,29.75,NNE,23,0.4,6.9,38,0.00,,,0.00,WUHU216HW,2013-01-09 19:56:00,
2013-01-09 13:00:00,55.1,29.1,29.75,NNE,23,0.0,4.0,37,0.00,,,0.00,WUHU216HW,2013-01-09 20:00:00,
2013-01-09 13:01:00,55.1,29.1,29.75,NNE,23,0.0,4.0,37,0.00,,,0.00,WUHU216HW,2013-01-09 20:01:00,
2013-01-09 13:05:00,55.3,29.3,29.74,NNW,338,1.1,1.1,37,0.00,,,0.00,WUHU216HW,2013-01-09 20:05:00,
2013-01-09 13:06:00,55.3,29.3,29.74,NNW,338,0.4,1.1,37,0.00,,,0.00,WUHU216HW,2013-01-09 20:06:00,
2013-01-09 13:10:00,55.4,28.7,29.74,NNW,338,0.2,1.1,36,0.00,,,0.00,WUHU216HW,2013-01-09 20:10:00,
2013-01-09 13:11:00,55.4,28.7,29.74,NNW,338,0.0,1.1,36,0.00,,,0.00,WUHU216HW,2013-01-09 20:11:00,
2013-01-09 13:15:00,55.8,29.0,29.74,West,270,1.3,1.8,36,0.00,,,0.00,WUHU216HW,2013-01-09 20:15:00,
2013-01-09 13:16:00,55.8,29.0,29.74,West,270,1.3,1.8,36,0.00,,,0.00,WUHU216HW,2013-01-09 20:16:00,
2013-01-09 13:20:00,55.8,29.0,29.74,WSW,248,1.8,2.7,36,0.00,,,0.00,WUHU216HW,2013-01-09 20:20:00,
2013-01-09 13:21:00,55.8,29.0,29.73,West,270,0.4,2.7,36,0.00,,,0.00,WUHU216HW,2013-01-09 20:21:00,
2013-01-09 13:26:00,56.2,27.9,29.73,West,270,4.0,4.0,34,0.00,,,0.00,WUHU216HW,2013-01-09 20:26:00,
2013-01-09 13:31:00,56.5,28.3,29.73,West,270,2.5,4.9,34,0.00,,,0.00,WUHU216HW,2013-01-09 20:31:00,
2013-01-09 13:36:00,56.7,28.5,29.73,West,270,4.0,4.9,34,0.00,,,0.00,WUHU216HW,2013-01-09 20:36:00,
2013-01-09 13:41:00,56.5,28.3,29.73,WNW,293,3.4,4.3,34,0.00,,,0.00,WUHU216HW,2013-01-09 20:41:00,
2013-01-09 13:42:00,56.5,28.3,29.73,WNW,293,3.4,4.3,34,0.00,,,0.00,WUHU216HW,2013-01-09 20:42:00,
2013-01-09 13:46:00,56.3,28.1,29.73,West,270,3.4,4.3,34,0.00,,,0.00,WUHU216HW,2013-01-09 20:46:00,
2013-01-09 13:47:00,56.3,28.1,29.73,West,270,3.4,4.3,34,0.00,,,0.00,WUHU216HW,2013-01-09 20:47:00,
2013-01-09 13:51:00,56.2,27.3,29.73,WSW,248,2.9,4.0,33,0.00,,,0.00,WUHU216HW,2013-01-09 20:51:00,
2013-01-09 13:52:00,56.2,27.9,29.73,West,270,3.8,4.0,34,0.00,,,0.00,WUHU216HW,2013-01-09 20:52:00,
2013-01-09 13:56:00,56.2,27.3,29.73,WNW,293,3.4,4.7,33,0.00,,,0.00,WUHU216HW,2013-01-09 20:56:00,
2013-01-09 13:57:00,56.2,27.3,29.73,West,270,4.0,4.7,33,0.00,,,0.00,WUHU216HW,2013-01-09 20:57:00,
2013-01-09 14:01:00,56.0,27.8,29.73,West,270,1.1,4.7,34,0.00,,,0.00,WUHU216HW,2013-01-09 21:01:00,
2013-01-09 14:02:00,56.0,27.8,29.73,WSW,248,0.7,4.7,34,0.00,,,0.00,WUHU216HW,2013-01-09 21:02:00,
2013-01-09 14:06:00,55.8,27.6,29.73,West,270,2.7,2.7,34,0.00,,,0.00,WUHU216HW,2013-01-09 21:06:00,
2013-01-09 14:07:00,55.8,26.9,29.73,WSW,248,1.1,2.7,33,0.00,,,0.00,WUHU216HW,2013-01-09 21:07:00,
2013-01-09 14:11:00,55.8,27.6,29.73,West,270,3.1,3.4,34,0.00,,,0.00,WUHU216HW,2013-01-09 21:11:00,
2013-01-09 14:12:00,55.8,27.6,29.73,West,270,3.1,3.4,34,0.00,,,0.00,WUHU216HW,2013-01-09 21:12:00,
2013-01-09 14:13:00,55.6,27.5,29.73,West,270,0.9,3.4,34,0.00,,,0.00,WUHU216HW,2013-01-09 21:13:00,
2013-01-09 14:17:00,55.6,27.5,29.73,WSW,248,1.8,3.4,34,0.00,,,0.00,WUHU216HW,2013-01-09 21:17:00,
2013-01-09 14:18:00,55.6,27.5,29.73,WSW,248,1.8,3.1,34,0.00,,,0.00,WUHU216HW,2013-01-09 21:18:00,
2013-01-09 14:22:00,55.3,26.5,29.73,West,270,1.1,5.1,33,0.00,,,0.00,WUHU216HW,2013-01-09 21:22:00,
2013-01-09 14:23:00,55.3,26.5,29.73,West,270,1.1,5.1,33,0.00,,,0.00,WUHU216HW,2013-01-09 21:23:00,
2013-01-09 14:27:00,55.1,26.3,29.72,SW,225,4.5,5.6,33,0.00,,,0.00,WUHU216HW,2013-01-09 21:27:00,
2013-01-09 14:28:00,55.1,26.3,29.72,SW,225,4.5,5.6,33,0.00,,,0.00,WUHU216HW,2013-01-09 21:28:00,
2013-01-09 14:32:00,55.1,26.3,29.72,West,270,5.4,5.6,33,0.00,,,0.00,WUHU216HW,2013-01-09 21:32:00,
2013-01-09 14:33:00,55.1,26.3,29.72,West,270,5.4,5.6,33,0.00,,,0.00,WUHU216HW,2013-01-09 21:33:00,
2013-01-09 14:37:00,55.1,26.3,29.72,WNW,293,4.0,5.4,33,0.00,,,0.00,WUHU216HW,2013-01-09 21:37:00,
2013-01-09 14:38:00,55.1,26.3,29.72,WNW,293,4.0,5.4,33,0.00,,,0.00,WUHU216HW,2013-01-09 21:38:00,
2013-01-09 14:43:00,55.1,26.3,29.72,West,270,3.4,5.4,33,0.00,,,0.00,WUHU216HW,2013-01-09 21:43:00,
2013-01-09 14:48:00,54.9,25.5,29.72,WNW,293,3.6,4.9,32,0.00,,,0.00,WUHU216HW,2013-01-09 21:48:00,
2013-01-09 14:53:00,54.7,25.3,29.72,West,270,3.8,5.1,32,0.00,,,0.00,WUHU216HW,2013-01-09 21:53:00,
2013-01-09 14:54:00,54.7,25.3,29.72,West,270,2.5,5.1,32,0.00,,,0.00,WUHU216HW,2013-01-09 21:54:00,
2013-01-09 14:58:00,54.5,25.8,29.72,WSW,248,0.4,5.1,33,0.00,,,0.00,WUHU216HW,2013-01-09 21:58:00,
2013-01-09 14:59:00,54.5,25.8,29.72,WSW,248,0.4,5.1,33,0.00,,,0.00,WUHU216HW,2013-01-09 21:59:00,
2013-01-09 15:03:00,54.4,25.7,29.72,West,270,0.4,1.1,33,0.00,,,0.00,WUHU216HW,2013-01-09 22:03:00,
2013-01-09 15:04:00,54.4,25.7,29.72,WNW,293,0.7,1.1,33,0.00,,,0.00,WUHU216HW,2013-01-09 22:04:00,
2013-01-09 15:08:00,54.2,25.6,29.72,WNW,293,2.0,2.0,33,0.00,,,0.00,WUHU216HW,2013-01-09 22:08:00,
2013-01-09 15:09:00,54.0,25.4,29.72,WNW,293,3.1,3.1,33,0.00,,,0.00,WUHU216HW,2013-01-09 22:09:00,
2013-01-09 15:13:00,53.6,25.7,29.72,West,270,4.7,4.7,34,0.00,,,0.00,WUHU216HW,2013-01-09 22:13:00,
2013-01-09 15:14:00,53.6,25.7,29.72,West,270,4.7,4.7,34,0.00,,,0.00,WUHU216HW,2013-01-09 22:14:00,
2013-01-09 15:18:00,53.3,25.5,29.72,WSW,248,0.2,4.7,34,0.00,,,0.00,WUHU216HW,2013-01-09 22:18:00,
2013-01-09 15:19:00,53.3,25.5,29.72,WSW,248,0.2,4.7,34,0.00,,,0.00,WUHU216HW,2013-01-09 22:19:00,
2013-01-09 15:23:00,52.7,24.9,29.72,WSW,248,0.9,1.8,34,0.00,,,0.00,WUHU216HW,2013-01-09 22:23:00,
2013-01-09 15:24:00,52.7,24.9,29.72,WSW,248,0.9,1.8,34,0.00,,,0.00,WUHU216HW,2013-01-09 22:24:00,
2013-01-09 15:29:00,52.2,25.2,29.72,WNW,293,0.7,1.3,35,0.00,,,0.00,WUHU216HW,2013-01-09 22:29:00,
2013-01-09 15:34:00,51.8,24.8,29.72,West,270,0.7,2.0,35,0.00,,,0.00,WUHU216HW,2013-01-09 22:34:00,
2013-01-09 15:39:00,51.3,25.0,29.72,West,270,0.0,2.0,36,0.00,,,0.00,WUHU216HW,2013-01-09 22:39:00,
2013-01-09 15:44:00,50.9,24.8,29.72,West,270,1.1,1.1,36,0.00,,,0.00,WUHU216HW,2013-01-09 22:44:00,
2013-01-09 15:45:00,50.8,24.6,29.72,West,270,0.4,1.1,36,0.00,,,0.00,WUHU216HW,2013-01-09 22:45:00,
2013-01-09 15:49:00,50.6,24.4,29.71,WSW,248,0.2,1.1,36,0.00,,,0.00,WUHU216HW,2013-01-09 22:49:00,
2013-01-09 15:50:00,50.4,24.2,29.71,WSW,248,1.1,1.1,36,0.00,,,0.00,WUHU216HW,2013-01-09 22:50:00,
2013-01-09 15:54:00,50.0,24.0,29.71,SW,225,2.5,2.5,36,0.00,,,0.00,WUHU216HW,2013-01-09 22:54:00,
2013-01-09 15:55:00,50.0,24.0,29.71,SW,225,2.5,2.5,36,0.00,,,0.00,WUHU216HW,2013-01-09 22:55:00,
2013-01-09 15:59:00,49.7,23.6,29.70,West,270,1.8,3.4,36,0.00,,,0.00,WUHU216HW,2013-01-09 22:59:00,
2013-01-09 16:00:00,49.7,23.6,29.70,West,270,2.2,3.4,36,0.00,,,0.00,WUHU216HW,2013-01-09 23:00:00,
2013-01-09 16:04:00,49.5,24.1,29.70,WSW,248,1.8,3.4,37,0.00,,,0.00,WUHU216HW,2013-01-09 23:04:00,
2013-01-09 16:05:00,49.5,24.1,29.70,WSW,248,1.8,3.4,37,0.00,,,0.00,WUHU216HW,2013-01-09 23:05:00,
2013-01-09 16:10:00,49.3,23.9,29.70,West,270,3.4,3.8,37,0.00,,,0.00,WUHU216HW,2013-01-09 23:10:00,
2013-01-09 16:15:00,49.0,23.7,29.70,WSW,248,2.7,3.8,37,0.00,,,0.00,WUHU216HW,2013-01-09 23:15:00,
2013-01-09 16:20:00,48.6,23.3,29.69,WSW,248,2.7,3.6,37,0.00,,,0.00,WUHU216HW,2013-01-09 23:20:00,
2013-01-09 16:21:00,48.6,23.3,29.69,WSW,248,2.7,3.6,37,0.00,,,0.00,WUHU216HW,2013-01-09 23:21:00,
2013-01-09 16:25:00,48.6,23.3,29.69,West,270,3.6,3.6,37,0.00,,,0.00,WUHU216HW,2013-01-09 23:25:00,
2013-01-09 16:26:00,48.4,23.9,29.69,West,270,2.5,3.6,38,0.00,,,0.00,WUHU216HW,2013-01-09 23:26:00,
2013-01-09 16:30:00,48.2,23.7,29.69,West,270,2.7,3.6,38,0.00,,,0.00,WUHU216HW,2013-01-09 23:30:00,
2013-01-09 16:31:00,48.1,23.5,29.69,West,270,2.5,3.6,38,0.00,,,0.00,WUHU216HW,2013-01-09 23:31:00,
2013-01-09 16:32:00,48.1,23.5,29.69,West,270,2.5,3.6,38,0.00,,,0.00,WUHU216HW,2013-01-09 23:32:00,
2013-01-09 16:35:00,47.9,23.4,29.69,WSW,248,2.5,2.7,38,0.00,,,0.00,WUHU216HW,2013-01-09 23:35:00,
2013-01-09 16:36:00,47.9,23.4,29.69,West,270,1.3,2.7,38,0.00,,,0.00,WUHU216HW,2013-01-09 23:36:00,
2013-01-09 16:37:00,47.7,23.2,29.69,WSW,248,2.2,2.7,38,0.00,,,0.00,WUHU216HW,2013-01-09 23:37:00,
2013-01-09 16:40:00,47.5,23.0,29.69,SW,225,2.0,2.5,38,0.00,,,0.00,WUHU216HW,2013-01-09 23:40:00,
2013-01-09 16:41:00,47.5,23.0,29.69,WSW,248,1.3,2.5,38,0.00,,,0.00,WUHU216HW,2013-01-09 23:41:00,
2013-01-09 16:42:00,47.3,22.9,29.69,WSW,248,2.2,2.9,38,0.00,,,0.00,WUHU216HW,2013-01-09 23:42:00,
2013-01-09 16:45:00,47.2,22.7,29.69,WSW,248,2.5,2.9,38,0.00,,,0.00,WUHU216HW,2013-01-09 23:45:00,
2013-01-09 16:46:00,47.2,22.7,29.69,WSW,248,2.5,2.9,38,0.00,,,0.00,WUHU216HW,2013-01-09 23:46:00,
2013-01-09 16:48:00,47.2,22.7,29.69,WNW,293,1.8,2.9,38,0.00,,,0.00,WUHU216HW,2013-01-09 23:48:00,
2013-01-09 16:50:00,46.8,21.7,29.69,West,270,1.6,2.9,37,0.00,,,0.00,WUHU216HW,2013-01-09 23:50:00,
2013-01-09 16:51:00,46.8,21.7,29.69,West,270,1.6,2.9,37,0.00,,,0.00,WUHU216HW,2013-01-09 23:51:00,
2013-01-09 16:53:00,46.8,21.7,29.69,WSW,248,1.8,2.5,37,0.00,,,0.00,WUHU216HW,2013-01-09 23:53:00,
2013-01-09 16:55:00,46.6,21.6,29.69,WSW,248,1.3,2.5,37,0.00,,,0.00,WUHU216HW,2013-01-09 23:55:00,
2013-01-09 16:56:00,46.6,21.6,29.69,WSW,248,1.3,2.5,37,0.00,,,0.00,WUHU216HW,2013-01-09 23:56:00,
2013-01-09 16:58:00,46.4,22.1,29.69,West,270,1.6,2.5,38,0.00,,,0.00,WUHU216HW,2013-01-09 23:58:00,
2013-01-09 17:01:00,46.3,21.9,29.69,WSW,248,1.6,2.5,38,0.00,,,0.00,WUHU216HW,2013-01-10 00:01:00,
2013-01-09 17:03:00,46.1,21.8,29.69,West,270,0.2,1.8,38,0.00,,,0.00,WUHU216HW,2013-01-10 00:03:00,
2013-01-09 17:06:00,45.9,21.6,29.70,West,270,2.2,2.2,38,0.00,,,0.00,WUHU216HW,2013-01-10 00:06:00,
2013-01-09 17:08:00,45.7,21.4,29.70,WNW,293,1.6,2.2,38,0.00,,,0.00,WUHU216HW,2013-01-10 00:08:00,
2013-01-09 17:11:00,45.7,21.4,29.70,WSW,248,2.0,3.8,38,0.00,,,0.00,WUHU216HW,2013-01-10 00:11:00,
2013-01-09 17:14:00,45.5,22.0,29.69,West,270,1.1,3.8,39,0.00,,,0.00,WUHU216HW,2013-01-10 00:14:00,
2013-01-09 17:16:00,45.4,21.8,29.69,West,270,2.5,3.8,39,0.00,,,0.00,WUHU216HW,2013-01-10 00:16:00,
2013-01-09 17:17:00,45.4,21.8,29.69,West,270,2.5,3.8,39,0.00,,,0.00,WUHU216HW,2013-01-10 00:17:00,
2013-01-09 17:19:00,45.2,21.6,29.69,West,270,1.6,3.6,39,0.00,,,0.00,WUHU216HW,2013-01-10 00:19:00,
2013-01-09 17:21:00,45.2,21.6,29.69,West,270,0.9,3.6,39,0.00,,,0.00,WUHU216HW,2013-01-10 00:21:00,
2013-01-09 17:22:00,45.2,21.6,29.69,West,270,0.9,3.6,39,0.00,,,0.00,WUHU216HW,2013-01-10 00:22:00,
2013-01-09 17:24:00,45.0,21.4,29.69,West,270,2.5,3.6,39,0.00,,,0.00,WUHU216HW,2013-01-10 00:24:00,
2013-01-09 17:26:00,45.0,21.4,29.70,WNW,293,2.5,3.6,39,0.00,,,0.00,WUHU216HW,2013-01-10 00:26:00,
2013-01-09 17:27:00,45.0,21.4,29.70,WNW,293,2.5,3.6,39,0.00,,,0.00,WUHU216HW,2013-01-10 00:27:00,
2013-01-09 17:30:00,44.8,22.0,29.70,West,270,2.5,2.5,40,0.00,,,0.00,WUHU216HW,2013-01-10 00:30:00,
2013-01-09 17:32:00,44.6,21.8,29.69,WNW,293,2.0,2.5,40,0.00,,,0.00,WUHU216HW,2013-01-10 00:32:00,
2013-01-09 17:35:00,44.6,21.8,29.69,West,270,2.0,2.7,40,0.00,,,0.00,WUHU216HW,2013-01-10 00:35:00,
2013-01-09 17:37:00,44.6,21.8,29.69,West,270,1.8,2.7,40,0.00,,,0.00,WUHU216HW,2013-01-10 00:37:00,
2013-01-09 17:40:00,44.5,21.6,29.69,WSW,248,2.0,2.9,40,0.00,,,0.00,WUHU216HW,2013-01-10 00:40:00,
2013-01-09 17:42:00,44.5,22.1,29.69,WSW,248,2.5,2.9,41,0.00,,,0.00,WUHU216HW,2013-01-10 00:42:00,
2013-01-09 17:45:00,44.5,22.1,29.69,SW,225,1.3,2.9,41,0.00,,,0.00,WUHU216HW,2013-01-10 00:45:00,
2013-01-09 17:47:00,44.5,22.1,29.69,SW,225,2.2,2.9,41,0.00,,,0.00,WUHU216HW,2013-01-10 00:47:00,
2013-01-09 17:48:00,44.5,22.1,29.69,SW,225,1.1,2.9,41,0.00,,,0.00,WUHU216HW,2013-01-10 00:48:00,
2013-01-09 17:50:00,44.3,22.0,29.69,SW,225,2.7,2.9,41,0.00,,,0.00,WUHU216HW,2013-01-10 00:50:00,
2013-01-09 17:52:00,44.3,22.0,29.69,WSW,248,3.1,3.1,41,0.00,,,0.00,WUHU216HW,2013-01-10 00:52:00,
2013-01-09 17:53:00,44.3,22.0,29.69,WSW,248,3.4,3.4,41,0.00,,,0.00,WUHU216HW,2013-01-10 00:53:00,
2013-01-09 17:55:00,43.9,21.7,29.69,WSW,248,1.6,3.4,41,0.00,,,0.00,WUHU216HW,2013-01-10 00:55:00,
2013-01-09 17:57:00,43.9,21.7,29.69,WSW,248,2.5,3.4,41,0.00,,,0.00,WUHU216HW,2013-01-10 00:57:00,
2013-01-09 17:58:00,43.7,21.5,29.69,SW,225,2.2,3.4,41,0.00,,,0.00,WUHU216HW,2013-01-10 00:58:00,
2013-01-09 18:00:00,43.6,21.9,29.69,SSW,203,3.4,3.4,42,0.00,,,0.00,WUHU216HW,2013-01-10 01:00:00,
2013-01-09 18:02:00,43.6,21.9,29.69,SSW,203,2.2,3.4,42,0.00,,,0.00,WUHU216HW,2013-01-10 01:02:00,
2013-01-09 18:03:00,43.4,21.7,29.69,SSW,203,2.5,3.4,42,0.00,,,0.00,WUHU216HW,2013-01-10 01:03:00,
2013-01-09 18:05:00,43.4,21.7,29.69,SW,225,3.1,3.4,42,0.00,,,0.00,WUHU216HW,2013-01-10 01:05:00,
2013-01-09 18:07:00,43.2,21.6,29.69,SW,225,3.4,3.4,42,0.00,,,0.00,WUHU216HW,2013-01-10 01:07:00,
2013-01-09 18:08:00,43.2,21.6,29.69,SW,225,3.4,3.4,42,0.00,,,0.00,WUHU216HW,2013-01-10 01:08:00,
2013-01-09 18:10:00,43.2,21.6,29.69,SSW,203,2.7,3.4,42,0.00,,,0.00,WUHU216HW,2013-01-10 01:10:00,
2013-01-09 18:12:00,43.0,21.4,29.69,SW,225,3.4,3.4,42,0.00,,,0.00,WUHU216HW,2013-01-10 01:12:00,
2013-01-09 18:13:00,43.0,22.0,29.69,SSW,203,2.5,3.4,43,0.00,,,0.00,WUHU216HW,2013-01-10 01:13:00,
2013-01-09 18:14:00,43.0,22.0,29.69,SSW,203,2.5,3.4,43,0.00,,,0.00,WUHU216HW,2013-01-10 01:14:00,
2013-01-09 18:15:00,42.8,21.8,29.69,SSW,203,0.9,3.6,43,0.00,,,0.00,WUHU216HW,2013-01-10 01:15:00,
2013-01-09 18:17:00,42.8,21.8,29.69,SW,225,6.3,6.3,43,0.00,,,0.00,WUHU216HW,2013-01-10 01:17:00,
2013-01-09 18:18:00,42.8,21.8,29.69,WSW,248,4.0,6.3,43,0.00,,,0.00,WUHU216HW,2013-01-10 01:18:00,
2013-01-09 18:19:00,42.8,21.8,29.69,SW,225,2.0,6.3,43,0.00,,,0.00,WUHU216HW,2013-01-10 01:19:00,
2013-01-09 18:20:00,42.8,21.8,29.69,SW,225,2.5,6.3,43,0.00,,,0.00,WUHU216HW,2013-01-10 01:20:00,
2013-01-09 18:22:00,42.7,21.6,29.69,SSE,158,2.5,6.3,43,0.00,,,0.00,WUHU216HW,2013-01-10 01:22:00,
2013-01-09 18:23:00,42.7,21.6,29.69,WSW,248,2.0,6.3,43,0.00,,,0.00,WUHU216HW,2013-01-10 01:23:00,
2013-01-09 18:24:00,42.7,21.6,29.69,SW,225,3.8,6.3,43,0.00,,,0.00,WUHU216HW,2013-01-10 01:24:00,
2013-01-09 18:25:00,42.7,21.6,29.69,WSW,248,2.5,6.3,43,0.00,,,0.00,WUHU216HW,2013-01-10 01:25:00,
2013-01-09 18:27:00,42.7,21.6,29.69,NW,315,1.8,4.0,43,0.00,,,0.00,WUHU216HW,2013-01-10 01:27:00,
2013-01-09 18:28:00,42.7,21.6,29.69,SSW,203,2.7,3.8,43,0.00,,,0.00,WUHU216HW,2013-01-10 01:28:00,
2013-01-09 18:29:00,42.7,21.6,29.69,SW,225,3.4,3.8,43,0.00,,,0.00,WUHU216HW,2013-01-10 01:29:00,
2013-01-09 18:31:00,42.5,22.0,29.69,WSW,248,2.5,3.8,44,0.00,,,0.00,WUHU216HW,2013-01-10 01:31:00,
2013-01-09 18:32:00,42.5,22.0,29.69,WSW,248,4.0,4.0,44,0.00,,,0.00,WUHU216HW,2013-01-10 01:32:00,
2013-01-09 18:33:00,42.5,22.0,29.68,WSW,248,3.4,4.0,44,0.00,,,0.00,WUHU216HW,2013-01-10 01:33:00,
2013-01-09 18:34:00,42.5,22.0,29.68,WSW,248,1.8,4.0,44,0.00,,,0.00,WUHU216HW,2013-01-10 01:34:00,
2013-01-09 18:36:00,42.5,22.0,29.69,WSW,248,1.3,4.0,44,0.00,,,0.00,WUHU216HW,2013-01-10 01:36:00,
2013-01-09 18:38:00,42.5,22.0,29.69,SW,225,1.8,4.0,44,0.00,,,0.00,WUHU216HW,2013-01-10 01:38:00,
2013-01-09 18:39:00,42.5,22.0,29.69,SW,225,2.5,4.0,44,0.00,,,0.00,WUHU216HW,2013-01-10 01:39:00,
2013-01-09 18:41:00,42.5,22.0,29.69,WSW,248,2.7,4.0,44,0.00,,,0.00,WUHU216HW,2013-01-10 01:41:00,
2013-01-09 18:43:00,42.5,22.0,29.68,West,270,1.6,3.6,44,0.00,,,0.00,WUHU216HW,2013-01-10 01:43:00,
2013-01-09 18:44:00,42.5,22.0,29.68,West,270,3.6,3.6,44,0.00,,,0.00,WUHU216HW,2013-01-10 01:44:00,
2013-01-09 18:46:00,42.5,22.0,29.68,WSW,248,4.9,4.9,44,0.00,,,0.00,WUHU216HW,2013-01-10 01:46:00,
2013-01-09 18:48:00,42.5,22.5,29.68,WSW,248,4.5,4.9,45,0.00,,,0.00,WUHU216HW,2013-01-10 01:48:00,
2013-01-09 18:49:00,42.7,22.7,29.68,SW,225,3.4,4.9,45,0.00,,,0.00,WUHU216HW,2013-01-10 01:49:00,
2013-01-09 18:51:00,42.7,22.7,29.68,WSW,248,2.5,4.9,45,0.00,,,0.00,WUHU216HW,2013-01-10 01:51:00,
2013-01-09 18:53:00,42.8,22.9,29.68,SW,225,3.8,4.9,45,0.00,,,0.00,WUHU216HW,2013-01-10 01:53:00,
2013-01-09 18:54:00,42.8,22.9,29.69,SW,225,3.8,4.9,45,0.00,,,0.00,WUHU216HW,2013-01-10 01:54:00,
2013-01-09 18:55:00,42.8,22.9,29.69,WSW,248,2.5,4.9,45,0.00,,,0.00,WUHU216HW,2013-01-10 01:55:00,
2013-01-09 18:56:00,42.8,22.9,29.69,WSW,248,4.0,4.7,45,0.00,,,0.00,WUHU216HW,2013-01-10 01:56:00,
2013-01-09 18:58:00,42.8,22.9,29.69,WNW,293,2.7,4.0,45,0.00,,,0.00,WUHU216HW,2013-01-10 01:58:00,
2013-01-09 18:59:00,42.8,22.9,29.69,WNW,293,2.7,4.0,45,0.00,,,0.00,WUHU216HW,2013-01-10 01:59:00,
2013-01-09 19:00:00,42.8,22.9,29.68,WNW,293,2.7,4.0,45,0.00,,,0.00,WUHU216HW,2013-01-10 02:00:00,
2013-01-09 19:01:00,42.8,22.9,29.68,WSW,248,2.5,4.0,45,0.00,,,0.00,WUHU216HW,2013-01-10 02:01:00,
2013-01-09 19:04:00,42.8,22.9,29.68,WSW,248,1.8,4.0,45,0.00,,,0.00,WUHU216HW,2013-01-10 02:04:00,
2013-01-09 19:05:00,42.8,22.9,29.68,WSW,248,3.8,4.0,45,0.00,,,0.00,WUHU216HW,2013-01-10 02:05:00,
2013-01-09 19:06:00,42.8,22.9,29.68,West,270,2.7,3.8,45,0.00,,,0.00,WUHU216HW,2013-01-10 02:06:00,
2013-01-09 19:09:00,42.8,22.9,29.68,SW,225,2.9,3.8,45,0.00,,,0.00,WUHU216HW,2013-01-10 02:09:00,
2013-01-09 19:10:00,42.8,22.9,29.68,West,270,3.4,3.8,45,0.00,,,0.00,WUHU216HW,2013-01-10 02:10:00,
2013-01-09 19:12:00,42.8,22.9,29.68,SW,225,2.2,3.8,45,0.00,,,0.00,WUHU216HW,2013-01-10 02:12:00,
2013-01-09 19:14:00,42.7,22.7,29.67,SSW,203,3.4,3.8,45,0.00,,,0.00,WUHU216HW,2013-01-10 02:14:00,
2013-01-09 19:15:00,42.5,22.5,29.67,SSW,203,3.8,3.8,45,0.00,,,0.00,WUHU216HW,2013-01-10 02:15:00,
2013-01-09 19:17:00,42.5,22.5,29.67,WSW,248,1.8,3.8,45,0.00,,,0.00,WUHU216HW,2013-01-10 02:17:00,
2013-01-09 19:19:00,42.3,22.3,29.67,SSW,203,2.7,3.8,45,0.00,,,0.00,WUHU216HW,2013-01-10 02:19:00,
2013-01-09 19:20:00,42.1,22.1,29.67,SSW,203,1.1,3.8,45,0.00,,,0.00,WUHU216HW,2013-01-10 02:20:00,
2013-01-09 19:22:00,42.1,22.1,29.67,SW,225,2.7,3.8,45,0.00,,,0.00,WUHU216HW,2013-01-10 02:22:00,
2013-01-09 19:24:00,41.9,22.5,29.66,SSW,203,3.8,3.8,46,0.00,,,0.00,WUHU216HW,2013-01-10 02:24:00,
2013-01-09 19:25:00,41.9,22.5,29.66,SW,225,3.8,3.8,46,0.00,,,0.00,WUHU216HW,2013-01-10 02:25:00,
2013-01-09 19:27:00,41.8,22.3,29.66,SSW,203,4.5,4.5,46,0.00,,,0.00,WUHU216HW,2013-01-10 02:27:00,
2013-01-09 19:29:00,41.8,22.3,29.65,SW,225,1.8,4.5,46,0.00,,,0.00,WUHU216HW,2013-01-10 02:29:00,
2013-01-09 19:30:00,41.6,22.2,29.66,WSW,248,1.3,4.5,46,0.00,,,0.00,WUHU216HW,2013-01-10 02:30:00,
2013-01-09 19:32:00,41.6,22.2,29.65,SW,225,1.8,4.5,46,0.00,,,0.00,WUHU216HW,2013-01-10 02:32:00,
2013-01-09 19:35:00,41.4,22.5,29.66,SSW,203,1.8,4.5,47,0.00,,,0.00,WUHU216HW,2013-01-10 02:35:00,
2013-01-09 19:37:00,41.4,22.5,29.66,West,270,2.0,3.4,47,0.00,,,0.00,WUHU216HW,2013-01-10 02:37:00,
2013-01-09 19:40:00,41.2,22.4,29.66,WSW,248,0.7,2.7,47,0.00,,,0.00,WUHU216HW,2013-01-10 02:40:00,
2013-01-09 19:41:00,41.2,22.4,29.66,WSW,248,0.7,2.7,47,0.00,,,0.00,WUHU216HW,2013-01-10 02:41:00,
2013-01-09 19:42:00,41.0,22.2,29.66,West,270,2.2,2.7,47,0.00,,,0.00,WUHU216HW,2013-01-10 02:42:00,
2013-01-09 19:45:00,40.9,22.1,29.66,SSW,203,2.5,2.5,47,0.00,,,0.00,WUHU216HW,2013-01-10 02:45:00,
2013-01-09 19:46:00,40.9,22.1,29.65,SSW,203,4.0,4.0,47,0.00,,,0.00,WUHU216HW,2013-01-10 02:46:00,
2013-01-09 19:47:00,40.9,22.1,29.65,SSW,203,4.0,4.0,47,0.00,,,0.00,WUHU216HW,2013-01-10 02:47:00,
2013-01-09 19:50:00,40.5,22.2,29.65,WSW,248,1.6,4.0,48,0.00,,,0.00,WUHU216HW,2013-01-10 02:50:00,
2013-01-09 19:51:00,40.5,22.2,29.65,West,270,1.8,4.0,48,0.00,,,0.00,WUHU216HW,2013-01-10 02:51:00,
2013-01-09 19:52:00,40.5,22.2,29.65,West,270,1.8,4.0,48,0.00,,,0.00,WUHU216HW,2013-01-10 02:52:00,
2013-01-09 19:55:00,40.3,22.1,29.65,WSW,248,1.1,4.0,48,0.00,,,0.00,WUHU216HW,2013-01-10 02:55:00,
2013-01-09 19:56:00,40.1,21.9,29.65,WSW,248,1.3,2.5,48,0.00,,,0.00,WUHU216HW,2013-01-10 02:56:00,
2013-01-09 19:57:00,40.1,21.9,29.65,WSW,248,1.3,2.5,48,0.00,,,0.00,WUHU216HW,2013-01-10 02:57:00,
2013-01-09 20:00:00,40.0,21.8,29.65,WSW,248,1.1,2.0,48,0.00,,,0.00,WUHU216HW,2013-01-10 03:00:00,
2013-01-09 20:01:00,40.0,21.8,29.65,WSW,248,1.1,2.0,48,0.00,,,0.00,WUHU216HW,2013-01-10 03:01:00,
2013-01-09 20:02:00,40.0,21.8,29.65,West,270,1.1,2.0,48,0.00,,,0.00,WUHU216HW,2013-01-10 03:02:00,
2013-01-09 20:05:00,40.0,22.2,29.65,SSW,203,0.7,1.6,49,0.00,,,0.00,WUHU216HW,2013-01-10 03:05:00,
2013-01-09 20:06:00,40.0,22.2,29.65,SSE,158,0.0,1.6,49,0.00,,,0.00,WUHU216HW,2013-01-10 03:06:00,
2013-01-09 20:07:00,40.0,22.2,29.65,SSE,158,0.0,1.3,49,0.00,,,0.00,WUHU216HW,2013-01-10 03:07:00,
2013-01-09 20:10:00,40.0,22.2,29.65,SW,225,0.7,1.1,49,0.00,,,0.00,WUHU216HW,2013-01-10 03:10:00,
2013-01-09 20:11:00,40.0,22.2,29.65,SW,225,0.7,1.1,49,0.00,,,0.00,WUHU216HW,2013-01-10 03:11:00,
2013-01-09 20:12:00,40.0,22.2,29.65,SSW,203,1.1,1.1,49,0.00,,,0.00,WUHU216HW,2013-01-10 03:12:00,
2013-01-09 20:15:00,39.8,22.2,29.65,SSW,203,0.7,1.1,49,0.00,,,0.00,WUHU216HW,2013-01-10 03:15:00,
2013-01-09 20:16:00,39.8,22.2,29.65,SW,225,1.8,1.8,49,0.00,,,0.00,WUHU216HW,2013-01-10 03:16:00,
2013-01-09 20:17:00,39.8,22.2,29.65,SW,225,1.8,1.8,49,0.00,,,0.00,WUHU216HW,2013-01-10 03:17:00,
2013-01-09 20:21:00,39.8,22.2,29.65,WSW,248,1.3,1.8,49,0.00,,,0.00,WUHU216HW,2013-01-10 03:21:00,
2013-01-09 20:22:00,39.8,22.2,29.65,SSW,203,1.3,1.8,49,0.00,,,0.00,WUHU216HW,2013-01-10 03:22:00,
2013-01-09 20:23:00,39.6,22.0,29.65,SW,225,2.5,2.5,49,0.00,,,0.00,WUHU216HW,2013-01-10 03:23:00,
2013-01-09 20:26:00,39.6,22.0,29.65,SW,225,2.0,2.9,49,0.00,,,0.00,WUHU216HW,2013-01-10 03:26:00,
2013-01-09 20:27:00,39.4,21.8,29.65,SSW,203,2.7,2.9,49,0.00,,,0.00,WUHU216HW,2013-01-10 03:27:00,
2013-01-09 20:28:00,39.4,21.8,29.65,SSW,203,2.7,2.9,49,0.00,,,0.00,WUHU216HW,2013-01-10 03:28:00,
2013-01-09 20:31:00,39.2,22.1,29.65,SW,225,1.8,2.9,50,0.00,,,0.00,WUHU216HW,2013-01-10 03:31:00,
2013-01-09 20:32:00,39.2,22.1,29.65,SSW,203,2.0,2.9,50,0.00,,,0.00,WUHU216HW,2013-01-10 03:32:00,
2013-01-09 20:33:00,39.2,22.1,29.65,SSW,203,1.8,2.9,50,0.00,,,0.00,WUHU216HW,2013-01-10 03:33:00,
2013-01-09 20:36:00,39.1,22.0,29.65,SW,225,1.8,2.7,50,0.00,,,0.00,WUHU216HW,2013-01-10 03:36:00,
2013-01-09 20:37:00,39.1,22.0,29.64,SSW,203,2.0,2.7,50,0.00,,,0.00,WUHU216HW,2013-01-10 03:37:00,
2013-01-09 20:38:00,39.1,22.0,29.64,SW,225,1.1,2.5,50,0.00,,,0.00,WUHU216HW,2013-01-10 03:38:00,
2013-01-09 20:41:00,38.9,21.8,29.65,SSW,203,0.9,2.0,50,0.00,,,0.00,WUHU216HW,2013-01-10 03:41:00,
2013-01-09 20:42:00,38.9,21.8,29.65,SSW,203,0.9,2.0,50,0.00,,,0.00,WUHU216HW,2013-01-10 03:42:00,
2013-01-09 20:43:00,38.9,22.2,29.65,SW,225,1.1,2.0,51,0.00,,,0.00,WUHU216HW,2013-01-10 03:43:00,
2013-01-09 20:46:00,38.7,22.1,29.65,SSW,203,3.1,3.6,51,0.00,,,0.00,WUHU216HW,2013-01-10 03:46:00,
2013-01-09 20:47:00,38.7,22.1,29.65,SSW,203,3.1,3.6,51,0.00,,,0.00,WUHU216HW,2013-01-10 03:47:00,
2013-01-09 20:48:00,38.7,22.1,29.65,SW,225,2.5,3.6,51,0.00,,,0.00,WUHU216HW,2013-01-10 03:48:00,
2013-01-09 20:51:00,38.5,22.0,29.65,SW,225,1.8,3.6,51,0.00,,,0.00,WUHU216HW,2013-01-10 03:51:00,
2013-01-09 20:52:00,38.5,22.0,29.65,SSW,203,2.5,3.6,51,0.00,,,0.00,WUHU216HW,2013-01-10 03:52:00,
2013-01-09 20:53:00,38.5,22.0,29.64,SSW,203,1.8,3.6,51,0.00,,,0.00,WUHU216HW,2013-01-10 03:53:00,
2013-01-09 20:56:00,38.5,22.3,29.64,SW,225,1.8,2.5,52,0.00,,,0.00,WUHU216HW,2013-01-10 03:56:00,
2013-01-09 20:57:00,38.5,22.3,29.64,SW,225,1.8,2.5,52,0.00,,,0.00,WUHU216HW,2013-01-10 03:57:00,
2013-01-09 20:58:00,38.3,22.2,29.65,SW,225,2.2,2.5,52,0.00,,,0.00,WUHU216HW,2013-01-10 03:58:00,
2013-01-09 21:02:00,38.2,22.1,29.64,SSW,203,1.6,3.4,52,0.00,,,0.00,WUHU216HW,2013-01-10 04:02:00,
2013-01-09 21:03:00,38.2,22.1,29.64,SSW,203,2.5,3.4,52,0.00,,,0.00,WUHU216HW,2013-01-10 04:03:00,
2013-01-09 21:04:00,38.2,22.1,29.64,SSW,203,2.5,3.4,52,0.00,,,0.00,WUHU216HW,2013-01-10 04:04:00,
2013-01-09 21:07:00,38.2,22.5,29.64,SSW,203,3.1,3.4,53,0.00,,,0.00,WUHU216HW,2013-01-10 04:07:00,
2013-01-09 21:08:00,38.2,22.5,29.64,SSW,203,2.7,3.4,53,0.00,,,0.00,WUHU216HW,2013-01-10 04:08:00,
2013-01-09 21:09:00,38.0,22.3,29.64,SW,225,2.0,3.4,53,0.00,,,0.00,WUHU216HW,2013-01-10 04:09:00,
2013-01-09 21:12:00,37.8,22.1,29.64,SW,225,3.4,3.4,53,0.00,,,0.00,WUHU216HW,2013-01-10 04:12:00,
2013-01-09 21:13:00,37.8,22.1,29.65,SSW,203,2.9,3.4,53,0.00,,,0.00,WUHU216HW,2013-01-10 04:13:00,
2013-01-09 21:14:00,37.8,22.1,29.64,SSW,203,2.5,3.4,53,0.00,,,0.00,WUHU216HW,2013-01-10 04:14:00,
2013-01-09 21:17:00,37.8,22.1,29.64,SW,225,2.2,3.8,53,0.00,,,0.00,WUHU216HW,2013-01-10 04:17:00,
2013-01-09 21:19:00,37.8,22.1,29.64,SW,225,3.1,3.8,53,0.00,,,0.00,WUHU216HW,2013-01-10 04:19:00,
2013-01-09 21:22:00,37.8,22.6,29.64,WSW,248,3.1,4.0,54,0.00,,,0.00,WUHU216HW,2013-01-10 04:22:00,
2013-01-09 21:23:00,37.8,22.6,29.64,WSW,248,3.1,4.0,54,0.00,,,0.00,WUHU216HW,2013-01-10 04:23:00,
2013-01-09 21:24:00,37.8,22.6,29.64,SW,225,3.4,4.0,54,0.00,,,0.00,WUHU216HW,2013-01-10 04:24:00,
2013-01-09 21:27:00,37.8,23.1,29.64,SSW,203,2.7,4.0,55,0.00,,,0.00,WUHU216HW,2013-01-10 04:27:00,
2013-01-09 21:28:00,37.8,23.1,29.64,SSW,203,2.7,4.0,55,0.00,,,0.00,WUHU216HW,2013-01-10 04:28:00,
2013-01-09 21:29:00,37.8,23.1,29.64,SSW,203,2.5,4.0,55,0.00,,,0.00,WUHU216HW,2013-01-10 04:29:00,
2013-01-09 21:30:00,37.8,23.1,29.64,SSW,203,2.5,4.0,55,0.00,,,0.00,WUHU216HW,2013-01-10 04:30:00,
2013-01-09 21:33:00,37.8,23.1,29.64,SSW,203,0.4,4.0,55,0.00,,,0.00,WUHU216HW,2013-01-10 04:33:00,
2013-01-09 21:34:00,37.8,23.1,29.64,SW,225,1.3,2.7,55,0.00,,,0.00,WUHU216HW,2013-01-10 04:34:00,
2013-01-09 21:35:00,37.8,23.1,29.64,SW,225,1.3,2.7,55,0.00,,,0.00,WUHU216HW,2013-01-10 04:35:00,
2013-01-09 21:38:00,37.8,23.1,29.64,SSW,203,1.6,2.5,55,0.00,,,0.00,WUHU216HW,2013-01-10 04:38:00,
2013-01-09 21:39:00,37.8,23.1,29.64,SW,225,1.6,1.6,55,0.00,,,0.00,WUHU216HW,2013-01-10 04:39:00,
2013-01-09 21:40:00,37.8,23.1,29.64,SSW,203,1.1,1.6,55,0.00,,,0.00,WUHU216HW,2013-01-10 04:40:00,
2013-01-09 21:43:00,37.8,23.1,29.64,SSW,203,2.7,2.7,55,0.00,,,0.00,WUHU216HW,2013-01-10 04:43:00,
2013-01-09 21:44:00,37.8,23.1,29.64,SW,225,1.3,2.7,55,0.00,,,0.00,WUHU216HW,2013-01-10 04:44:00,
2013-01-09 21:46:00,37.8,23.1,29.64,SW,225,2.2,2.7,55,0.00,,,0.00,WUHU216HW,2013-01-10 04:46:00,
2013-01-09 21:48:00,37.8,23.1,29.64,SSW,203,2.2,2.7,55,0.00,,,0.00,WUHU216HW,2013-01-10 04:48:00,
2013-01-09 21:49:00,37.8,23.1,29.64,SSW,203,2.9,2.9,55,0.00,,,0.00,WUHU216HW,2013-01-10 04:49:00,
2013-01-09 21:50:00,37.6,22.9,29.64,SW,225,1.1,2.9,55,0.00,,,0.00,WUHU216HW,2013-01-10 04:50:00,
2013-01-09 21:51:00,37.6,22.9,29.64,SSW,203,1.3,2.9,55,0.00,,,0.00,WUHU216HW,2013-01-10 04:51:00,
2013-01-09 21:53:00,37.6,22.9,29.64,SSW,203,1.8,2.9,55,0.00,,,0.00,WUHU216HW,2013-01-10 04:53:00,
2013-01-09 21:54:00,37.6,22.9,29.64,SSW,203,1.3,2.9,55,0.00,,,0.00,WUHU216HW,2013-01-10 04:54:00,
2013-01-09 21:55:00,37.6,23.3,29.64,SSW,203,2.0,2.9,56,0.00,,,0.00,WUHU216HW,2013-01-10 04:55:00,
2013-01-09 21:56:00,37.6,23.3,29.63,SSW,203,2.0,2.9,56,0.00,,,0.00,WUHU216HW,2013-01-10 04:56:00,
2013-01-09 21:58:00,37.4,23.1,29.63,SW,225,2.5,2.9,56,0.00,,,0.00,WUHU216HW,2013-01-10 04:58:00,
2013-01-09 21:59:00,37.4,23.1,29.63,SSW,203,3.4,3.4,56,0.00,,,0.00,WUHU216HW,2013-01-10 04:59:00,
2013-01-09 22:00:00,37.4,23.1,29.63,SW,225,1.3,3.4,56,0.00,,,0.00,WUHU216HW,2013-01-10 05:00:00,
2013-01-09 22:01:00,37.4,23.1,29.63,WSW,248,0.9,3.4,56,0.00,,,0.00,WUHU216HW,2013-01-10 05:01:00,
2013-01-09 22:05:00,37.3,23.0,29.63,WSW,248,0.4,3.4,56,0.00,,,0.00,WUHU216HW,2013-01-10 05:05:00,
2013-01-09 22:06:00,37.3,23.0,29.63,WSW,248,0.7,3.4,56,0.00,,,0.00,WUHU216HW,2013-01-10 05:06:00,
2013-01-09 22:07:00,37.3,23.0,29.63,WSW,248,1.1,3.4,56,0.00,,,0.00,WUHU216HW,2013-01-10 05:07:00,
2013-01-09 22:10:00,37.1,22.8,29.63,WSW,248,1.8,2.7,56,0.00,,,0.00,WUHU216HW,2013-01-10 05:10:00,
2013-01-09 22:11:00,37.1,22.8,29.63,SSW,203,1.6,2.7,56,0.00,,,0.00,WUHU216HW,2013-01-10 05:11:00,
2013-01-09 22:12:00,37.1,22.8,29.63,SSW,203,2.0,2.7,56,0.00,,,0.00,WUHU216HW,2013-01-10 05:12:00,
2013-01-09 22:15:00,37.1,22.8,29.63,SW,225,4.0,4.0,56,0.00,,,0.00,WUHU216HW,2013-01-10 05:15:00,
2013-01-09 22:16:00,37.1,22.8,29.63,SSW,203,2.9,4.0,56,0.00,,,0.00,WUHU216HW,2013-01-10 05:16:00,
2013-01-09 22:18:00,37.1,23.2,29.63,SW,225,2.2,4.0,57,0.00,,,0.00,WUHU216HW,2013-01-10 05:18:00,
2013-01-09 22:20:00,36.9,23.0,29.63,SSW,203,3.4,4.0,57,0.00,,,0.00,WUHU216HW,2013-01-10 05:20:00,
2013-01-09 22:21:00,36.9,23.0,29.63,SW,225,3.1,4.0,57,0.00,,,0.00,WUHU216HW,2013-01-10 05:21:00,
2013-01-09 22:22:00,36.7,22.9,29.63,SW,225,2.9,4.0,57,0.00,,,0.00,WUHU216HW,2013-01-10 05:22:00,
2013-01-09 22:23:00,36.7,22.9,29.63,SW,225,2.9,4.0,57,0.00,,,0.00,WUHU216HW,2013-01-10 05:23:00,
2013-01-09 22:26:00,36.7,22.9,29.63,SSW,203,2.9,3.4,57,0.00,,,0.00,WUHU216HW,2013-01-10 05:26:00,
2013-01-09 22:27:00,36.7,22.9,29.63,SW,225,3.4,3.4,57,0.00,,,0.00,WUHU216HW,2013-01-10 05:27:00,
2013-01-09 22:28:00,36.7,22.9,29.63,SW,225,3.4,3.4,57,0.00,,,0.00,WUHU216HW,2013-01-10 05:28:00,
2013-01-09 22:31:00,36.5,22.8,29.62,SW,225,3.1,3.8,57,0.00,,,0.00,WUHU216HW,2013-01-10 05:31:00,
2013-01-09 22:32:00,36.5,22.8,29.62,SW,225,0.9,3.8,57,0.00,,,0.00,WUHU216HW,2013-01-10 05:32:00,
2013-01-09 22:33:00,36.5,22.8,29.62,SW,225,0.9,3.8,57,0.00,,,0.00,WUHU216HW,2013-01-10 05:33:00,
2013-01-09 22:36:00,36.5,22.8,29.62,SSW,203,0.2,3.8,57,0.00,,,0.00,WUHU216HW,2013-01-10 05:36:00,
2013-01-09 22:37:00,36.5,22.8,29.62,SSW,203,0.7,3.8,57,0.00,,,0.00,WUHU216HW,2013-01-10 05:37:00,
2013-01-09 22:38:00,36.5,22.8,29.62,SSW,203,0.7,3.8,57,0.00,,,0.00,WUHU216HW,2013-01-10 05:38:00,
2013-01-09 22:41:00,36.5,23.1,29.62,SW,225,1.8,2.2,58,0.00,,,0.00,WUHU216HW,2013-01-10 05:41:00,
2013-01-09 22:42:00,36.5,23.1,29.62,SW,225,1.8,2.2,58,0.00,,,0.00,WUHU216HW,2013-01-10 05:42:00,
2013-01-09 22:43:00,36.5,23.1,29.62,SW,225,1.8,2.2,58,0.00,,,0.00,WUHU216HW,2013-01-10 05:43:00,
2013-01-09 22:46:00,36.5,23.1,29.62,SSW,203,1.3,2.2,58,0.00,,,0.00,WUHU216HW,2013-01-10 05:46:00,
2013-01-09 22:47:00,36.5,23.1,29.62,SSW,203,1.3,2.2,58,0.00,,,0.00,WUHU216HW,2013-01-10 05:47:00,
2013-01-09 22:48:00,36.4,23.1,29.62,SW,225,1.8,2.2,58,0.00,,,0.00,WUHU216HW,2013-01-10 05:48:00,
2013-01-09 22:51:00,36.5,23.1,29.62,SW,225,4.0,4.0,58,0.00,,,0.00,WUHU216HW,2013-01-10 05:51:00,
2013-01-09 22:52:00,36.5,23.1,29.62,SW,225,3.4,4.0,58,0.00,,,0.00,WUHU216HW,2013-01-10 05:52:00,
2013-01-09 22:53:00,36.5,23.1,29.62,SW,225,3.4,4.0,58,0.00,,,0.00,WUHU216HW,2013-01-10 05:53:00,
2013-01-09 22:56:00,36.5,23.1,29.62,SW,225,2.5,4.0,58,0.00,,,0.00,WUHU216HW,2013-01-10 05:56:00,
2013-01-09 22:57:00,36.5,23.1,29.62,SW,225,2.5,4.0,58,0.00,,,0.00,WUHU216HW,2013-01-10 05:57:00,
2013-01-09 22:58:00,36.5,23.1,29.62,WSW,248,2.2,4.0,58,0.00,,,0.00,WUHU216HW,2013-01-10 05:58:00,
2013-01-09 23:02:00,36.5,23.1,29.62,SW,225,1.8,3.4,58,0.00,,,0.00,WUHU216HW,2013-01-10 06:02:00,
2013-01-09 23:03:00,36.5,23.1,29.61,SSW,203,2.0,2.9,58,0.00,,,0.00,WUHU216HW,2013-01-10 06:03:00,
2013-01-09 23:07:00,36.4,23.1,29.62,SW,225,1.8,2.5,58,0.00,,,0.00,WUHU216HW,2013-01-10 06:07:00,
2013-01-09 23:08:00,36.4,23.1,29.62,SW,225,2.2,2.5,58,0.00,,,0.00,WUHU216HW,2013-01-10 06:08:00,
2013-01-09 23:12:00,36.4,23.1,29.62,SW,225,1.6,2.5,58,0.00,,,0.00,WUHU216HW,2013-01-10 06:12:00,
2013-01-09 23:13:00,36.4,23.4,29.62,SW,225,1.3,2.5,59,0.00,,,0.00,WUHU216HW,2013-01-10 06:13:00,
2013-01-09 23:17:00,36.2,23.3,29.62,SW,225,2.5,2.5,59,0.00,,,0.00,WUHU216HW,2013-01-10 06:17:00,
2013-01-09 23:18:00,36.2,23.3,29.62,SSW,203,2.7,2.7,59,0.00,,,0.00,WUHU216HW,2013-01-10 06:18:00,
2013-01-09 23:19:00,36.2,23.3,29.62,SSW,203,2.7,2.7,59,0.00,,,0.00,WUHU216HW,2013-01-10 06:19:00,
2013-01-09 23:22:00,36.2,23.3,29.61,SW,225,2.7,4.0,59,0.00,,,0.00,WUHU216HW,2013-01-10 06:22:00,
2013-01-09 23:23:00,36.2,23.3,29.61,SW,225,1.8,4.0,59,0.00,,,0.00,WUHU216HW,2013-01-10 06:23:00,
2013-01-09 23:24:00,36.0,23.1,29.62,WSW,248,1.3,4.0,59,0.00,,,0.00,WUHU216HW,2013-01-10 06:24:00,
2013-01-09 23:27:00,36.0,23.1,29.61,SW,225,2.0,4.0,59,0.00,,,0.00,WUHU216HW,2013-01-10 06:27:00,
2013-01-09 23:28:00,36.0,23.1,29.61,SW,225,1.8,4.0,59,0.00,,,0.00,WUHU216HW,2013-01-10 06:28:00,
2013-01-09 23:29:00,36.0,23.1,29.61,SW,225,2.5,3.6,59,0.00,,,0.00,WUHU216HW,2013-01-10 06:29:00,
2013-01-09 23:32:00,36.0,23.1,29.61,SW,225,3.4,4.0,59,0.00,,,0.00,WUHU216HW,2013-01-10 06:32:00,
2013-01-09 23:33:00,36.0,23.1,29.61,SSW,203,3.8,4.0,59,0.00,,,0.00,WUHU216HW,2013-01-10 06:33:00,
2013-01-09 23:34:00,36.0,23.1,29.61,SW,225,4.3,4.3,59,0.00,,,0.00,WUHU216HW,2013-01-10 06:34:00,
2013-01-09 23:37:00,35.8,23.0,29.61,SSW,203,3.8,4.3,59,0.00,,,0.00,WUHU216HW,2013-01-10 06:37:00,
2013-01-09 23:38:00,35.8,23.0,29.60,SW,225,3.1,4.3,59,0.00,,,0.00,WUHU216HW,2013-01-10 06:38:00,
2013-01-09 23:39:00,35.8,23.0,29.60,SW,225,2.2,4.3,59,0.00,,,0.00,WUHU216HW,2013-01-10 06:39:00,
2013-01-09 23:42:00,35.8,23.4,29.60,SSW,203,1.8,4.3,60,0.00,,,0.00,WUHU216HW,2013-01-10 06:42:00,
2013-01-09 23:43:00,35.6,23.2,29.60,SSW,203,1.3,4.3,60,0.00,,,0.00,WUHU216HW,2013-01-10 06:43:00,
2013-01-09 23:45:00,35.6,22.8,29.60,SSW,203,2.0,3.8,59,0.00,,,0.00,WUHU216HW,2013-01-10 06:45:00,
2013-01-09 23:47:00,35.6,23.2,29.60,SSW,203,2.5,3.1,60,0.00,,,0.00,WUHU216HW,2013-01-10 06:47:00,
2013-01-09 23:48:00,35.6,23.2,29.60,SSW,203,2.5,3.1,60,0.00,,,0.00,WUHU216HW,2013-01-10 06:48:00,
2013-01-09 23:50:00,35.6,23.2,29.60,SW,225,1.8,2.5,60,0.00,,,0.00,WUHU216HW,2013-01-10 06:50:00,
2013-01-09 23:53:00,35.5,23.0,29.60,SW,225,3.4,3.4,60,0.00,,,0.00,WUHU216HW,2013-01-10 06:53:00,
2013-01-09 23:54:00,35.5,23.0,29.60,SW,225,2.7,3.4,60,0.00,,,0.00,WUHU216HW,2013-01-10 06:54:00,
2013-01-09 23:55:00,35.5,23.0,29.60,SSW,203,3.4,3.4,60,0.00,,,0.00,WUHU216HW,2013-01-10 06:55:00,
2013-01-09 23:58:00,35.5,23.0,29.60,SW,225,1.6,4.7,60,0.00,,,0.00,WUHU216HW,2013-01-10 06:58:00,
2013-01-09 23:59:00,35.5,23.0,29.60,SSW,203,1.3,4.7,60,0.00,,,0.00,WUHU216HW,2013-01-10 06:59:00,